2016 Cux-Wetter.de -Die Nutzung der Wetterdaten nur mit ausdrcklicher Genehmigung
Wetterdaten: Mittwoch, 20.02.2019
Datum Zeit Temp. A. Feuchte A. Luftdruck Regen Wind Richtung Richtung Sonnenschein Solar Taupunkt Windchill Windben
20.02.2019 00:00 6,1 C 94 % 1015,4 hPa 0,0 l/m 12,1 km/h (2 Bft) SW 218 0 min 0 W/m 5,2 C 2,0 C 24,1 km/h (4 Bft)
20.02.2019 00:03 6,1 C 94 % 1015,4 hPa 0,0 l/m 11,2 km/h (2 Bft) W-SW 255 0 min 0 W/m 5,2 C 2,5 C 24,1 km/h (4 Bft)
20.02.2019 00:06 6,1 C 94 % 1015,4 hPa 0,0 l/m 14,1 km/h (3 Bft) SW 227 0 min 0 W/m 5,2 C 0,9 C 22,5 km/h (4 Bft)
20.02.2019 00:09 6,2 C 94 % 1015,4 hPa 0,0 l/m 12,0 km/h (2 Bft) W-SW 247 0 min 0 W/m 5,3 C 2,1 C 20,9 km/h (4 Bft)
20.02.2019 00:12 6,2 C 94 % 1015,4 hPa 0,0 l/m 13,0 km/h (3 Bft) W 269 0 min 0 W/m 5,3 C 1,6 C 17,7 km/h (3 Bft)
20.02.2019 00:15 6,1 C 94 % 1015,4 hPa 0,0 l/m 11,3 km/h (2 Bft) W 280 0 min 0 W/m 5,2 C 2,4 C 20,9 km/h (4 Bft)
20.02.2019 00:18 6,2 C 94 % 1015,4 hPa 0,0 l/m 10,2 km/h (2 Bft) W 263 0 min 0 W/m 5,3 C 3,3 C 19,3 km/h (3 Bft)
20.02.2019 00:21 6,2 C 94 % 1015,4 hPa 0,0 l/m 12,6 km/h (3 Bft) W-SW 250 0 min 0 W/m 5,3 C 1,8 C 24,1 km/h (4 Bft)
20.02.2019 00:24 6,2 C 94 % 1015,4 hPa 0,0 l/m 11,0 km/h (2 Bft) SW 215 0 min 0 W/m 5,3 C 2,7 C 17,7 km/h (3 Bft)
20.02.2019 00:27 6,2 C 94 % 1015,4 hPa 0,0 l/m 11,7 km/h (2 Bft) W-SW 253 0 min 0 W/m 5,3 C 2,3 C 20,9 km/h (4 Bft)
20.02.2019 00:30 6,2 C 94 % 1015,4 hPa 0,0 l/m 11,3 km/h (2 Bft) SW 232 0 min 0 W/m 5,3 C 2,6 C 16,1 km/h (3 Bft)
20.02.2019 00:33 6,2 C 94 % 1015,5 hPa 0,0 l/m 11,1 km/h (2 Bft) SW 232 0 min 0 W/m 5,3 C 2,7 C 25,7 km/h (4 Bft)
20.02.2019 00:36 6,2 C 94 % 1015,5 hPa 0,0 l/m 11,5 km/h (2 Bft) SW 225 0 min 0 W/m 5,3 C 2,4 C 22,5 km/h (4 Bft)
20.02.2019 00:39 6,2 C 94 % 1015,5 hPa 0,0 l/m 10,6 km/h (2 Bft) W-SW 243 0 min 0 W/m 5,3 C 3,0 C 17,7 km/h (3 Bft)
20.02.2019 00:42 6,2 C 94 % 1015,5 hPa 0,0 l/m 10,1 km/h (2 Bft) SW 232 0 min 0 W/m 5,3 C 3,3 C 16,1 km/h (3 Bft)
20.02.2019 00:45 6,2 C 94 % 1015,5 hPa 0,0 l/m 11,0 km/h (2 Bft) W-SW 242 0 min 0 W/m 5,3 C 2,7 C 17,7 km/h (3 Bft)
20.02.2019 00:48 6,2 C 94 % 1015,5 hPa 0,0 l/m 12,6 km/h (3 Bft) W-SW 241 0 min 0 W/m 5,3 C 1,8 C 22,5 km/h (4 Bft)
20.02.2019 00:51 6,2 C 94 % 1015,5 hPa 0,0 l/m 12,9 km/h (3 Bft) W-SW 244 0 min 0 W/m 5,3 C 1,6 C 19,3 km/h (3 Bft)
20.02.2019 00:54 6,2 C 94 % 1015,5 hPa 0,0 l/m 15,1 km/h (3 Bft) W-SW 252 0 min 0 W/m 5,3 C 0,5 C 22,5 km/h (4 Bft)
20.02.2019 00:57 6,2 C 94 % 1015,5 hPa 0,0 l/m 13,2 km/h (3 Bft) W-SW 255 0 min 0 W/m 5,3 C 1,5 C 20,9 km/h (4 Bft)
20.02.2019 01:00 6,2 C 94 % 1015,6 hPa 0,0 l/m 13,8 km/h (3 Bft) SW 223 0 min 0 W/m 5,3 C 1,1 C 24,1 km/h (4 Bft)
20.02.2019 01:03 6,2 C 94 % 1015,6 hPa 0,0 l/m 12,6 km/h (3 Bft) W-SW 249 0 min 0 W/m 5,3 C 1,8 C 19,3 km/h (3 Bft)
20.02.2019 01:06 6,2 C 94 % 1015,6 hPa 0,0 l/m 12,7 km/h (3 Bft) SW 220 0 min 0 W/m 5,3 C 1,7 C 20,9 km/h (4 Bft)
20.02.2019 01:09 6,2 C 94 % 1015,6 hPa 0,0 l/m 12,4 km/h (2 Bft) SW 235 0 min 0 W/m 5,3 C 1,9 C 19,3 km/h (3 Bft)
20.02.2019 01:12 6,2 C 94 % 1015,6 hPa 0,0 l/m 11,4 km/h (2 Bft) SW 232 0 min 0 W/m 5,3 C 2,5 C 20,9 km/h (4 Bft)
20.02.2019 01:15 6,2 C 94 % 1015,6 hPa 0,0 l/m 11,9 km/h (2 Bft) SW 229 0 min 0 W/m 5,3 C 2,2 C 20,9 km/h (4 Bft)
20.02.2019 01:18 6,2 C 93 % 1015,6 hPa 0,0 l/m 11,1 km/h (2 Bft) SW 219 0 min 0 W/m 5,2 C 2,7 C 19,3 km/h (3 Bft)
20.02.2019 01:21 6,2 C 93 % 1015,5 hPa 0,0 l/m 10,4 km/h (2 Bft) SW 233 0 min 0 W/m 5,2 C 3,1 C 17,7 km/h (3 Bft)
20.02.2019 01:24 6,2 C 94 % 1015,5 hPa 0,0 l/m 11,3 km/h (2 Bft) S-SW 200 0 min 0 W/m 5,3 C 2,6 C 16,1 km/h (3 Bft)
20.02.2019 01:27 6,2 C 94 % 1015,6 hPa 0,0 l/m 11,0 km/h (2 Bft) W-SW 250 0 min 0 W/m 5,3 C 2,7 C 20,9 km/h (4 Bft)
20.02.2019 01:30 6,2 C 94 % 1015,5 hPa 0,0 l/m 15,2 km/h (3 Bft) SW 226 0 min 0 W/m 5,3 C 0,4 C 22,5 km/h (4 Bft)
20.02.2019 01:33 6,2 C 94 % 1015,5 hPa 0,0 l/m 11,1 km/h (2 Bft) SW 221 0 min 0 W/m 5,3 C 2,7 C 17,7 km/h (3 Bft)
20.02.2019 01:36 6,3 C 93 % 1015,6 hPa 0,0 l/m 11,5 km/h (2 Bft) W-SW 238 0 min 0 W/m 5,3 C 2,6 C 17,7 km/h (3 Bft)
20.02.2019 01:39 6,3 C 93 % 1015,7 hPa 0,0 l/m 12,0 km/h (2 Bft) SW 236 0 min 0 W/m 5,3 C 2,3 C 19,3 km/h (3 Bft)
20.02.2019 01:42 6,3 C 93 % 1015,7 hPa 0,0 l/m 12,0 km/h (2 Bft) S-SW 203 0 min 0 W/m 5,3 C 2,3 C 19,3 km/h (3 Bft)
20.02.2019 01:45 6,3 C 93 % 1015,7 hPa 0,0 l/m 14,2 km/h (3 Bft) SW 226 0 min 0 W/m 5,3 C 1,1 C 20,9 km/h (4 Bft)
20.02.2019 01:48 6,3 C 93 % 1015,7 hPa 0,0 l/m 12,8 km/h (3 Bft) W-SW 240 0 min 0 W/m 5,3 C 1,8 C 20,9 km/h (4 Bft)
20.02.2019 01:51 6,3 C 93 % 1015,6 hPa 0,0 l/m 12,4 km/h (2 Bft) W-SW 245 0 min 0 W/m 5,3 C 2,0 C 20,9 km/h (4 Bft)
20.02.2019 01:54 6,4 C 93 % 1015,7 hPa 0,0 l/m 14,8 km/h (3 Bft) W-SW 238 0 min 0 W/m 5,4 C 0,9 C 22,5 km/h (4 Bft)
20.02.2019 01:57 6,4 C 93 % 1015,7 hPa 0,0 l/m 16,7 km/h (3 Bft) SW 229 0 min 0 W/m 5,4 C -0,0 C 27,4 km/h (5 Bft)
20.02.2019 02:00 6,4 C 93 % 1015,7 hPa 0,0 l/m 15,1 km/h (3 Bft) SW 229 0 min 0 W/m 5,4 C 0,7 C 25,7 km/h (4 Bft)
20.02.2019 02:03 6,4 C 93 % 1015,7 hPa 0,0 l/m 11,8 km/h (2 Bft) S-SW 202 0 min 0 W/m 5,4 C 2,5 C 19,3 km/h (3 Bft)
20.02.2019 02:06 6,4 C 93 % 1015,7 hPa 0,0 l/m 13,8 km/h (3 Bft) SW 224 0 min 0 W/m 5,4 C 1,4 C 22,5 km/h (4 Bft)
20.02.2019 02:09 6,4 C 93 % 1015,7 hPa 0,0 l/m 15,3 km/h (3 Bft) S-SW 209 0 min 0 W/m 5,4 C 0,6 C 25,7 km/h (4 Bft)
20.02.2019 02:12 6,4 C 93 % 1015,7 hPa 0,0 l/m 15,7 km/h (3 Bft) SW 230 0 min 0 W/m 5,4 C 0,4 C 25,7 km/h (4 Bft)
20.02.2019 02:15 6,4 C 93 % 1015,7 hPa 0,0 l/m 15,8 km/h (3 Bft) W-SW 240 0 min 0 W/m 5,4 C 0,4 C 25,7 km/h (4 Bft)
20.02.2019 02:18 6,4 C 93 % 1015,8 hPa 0,0 l/m 13,1 km/h (3 Bft) SW 232 0 min 0 W/m 5,4 C 1,7 C 22,5 km/h (4 Bft)
20.02.2019 02:21 6,4 C 93 % 1015,7 hPa 0,0 l/m 15,8 km/h (3 Bft) W-SW 238 0 min 0 W/m 5,4 C 0,4 C 24,1 km/h (4 Bft)
20.02.2019 02:24 6,4 C 93 % 1015,8 hPa 0,0 l/m 12,8 km/h (3 Bft) SW 231 0 min 0 W/m 5,4 C 1,9 C 20,9 km/h (4 Bft)
20.02.2019 02:27 6,4 C 93 % 1015,9 hPa 0,0 l/m 14,4 km/h (3 Bft) SW 223 0 min 0 W/m 5,4 C 1,1 C 22,5 km/h (4 Bft)
20.02.2019 02:30 6,4 C 92 % 1015,8 hPa 0,0 l/m 12,3 km/h (2 Bft) W-SW 246 0 min 0 W/m 5,2 C 2,2 C 19,3 km/h (3 Bft)
20.02.2019 02:33 6,4 C 93 % 1015,8 hPa 0,0 l/m 15,2 km/h (3 Bft) W-SW 237 0 min 0 W/m 5,4 C 0,7 C 25,7 km/h (4 Bft)
20.02.2019 02:36 6,4 C 93 % 1015,8 hPa 0,0 l/m 14,8 km/h (3 Bft) SW 227 0 min 0 W/m 5,4 C 0,9 C 22,5 km/h (4 Bft)
20.02.2019 02:39 6,4 C 92 % 1015,8 hPa 0,0 l/m 14,6 km/h (3 Bft) S-SW 207 0 min 0 W/m 5,2 C 1,0 C 25,7 km/h (4 Bft)
20.02.2019 02:42 6,4 C 92 % 1015,7 hPa 0,0 l/m 12,8 km/h (3 Bft) W-SW 240 0 min 0 W/m 5,2 C 1,9 C 20,9 km/h (4 Bft)
20.02.2019 02:45 6,4 C 92 % 1015,7 hPa 0,0 l/m 12,8 km/h (3 Bft) SW 229 0 min 0 W/m 5,2 C 1,9 C 19,3 km/h (3 Bft)
20.02.2019 02:48 6,3 C 92 % 1015,7 hPa 0,0 l/m 15,0 km/h (3 Bft) SW 235 0 min 0 W/m 5,1 C 0,7 C 19,3 km/h (3 Bft)
20.02.2019 02:51 6,4 C 92 % 1015,6 hPa 0,0 l/m 16,3 km/h (3 Bft) SW 227 0 min 0 W/m 5,2 C 0,2 C 25,7 km/h (4 Bft)
20.02.2019 02:54 6,3 C 92 % 1015,6 hPa 0,0 l/m 15,6 km/h (3 Bft) S-SW 202 0 min 0 W/m 5,1 C 0,4 C 27,4 km/h (5 Bft)
20.02.2019 02:57 6,3 C 92 % 1015,7 hPa 0,0 l/m 12,5 km/h (2 Bft) SW 227 0 min 0 W/m 5,1 C 2,0 C 24,1 km/h (4 Bft)
20.02.2019 03:00 6,3 C 92 % 1015,7 hPa 0,0 l/m 18,2 km/h (3 Bft) S-SW 207 0 min 0 W/m 5,1 C -0,8 C 27,4 km/h (5 Bft)
20.02.2019 03:03 6,3 C 92 % 1015,7 hPa 0,0 l/m 12,7 km/h (3 Bft) SW 222 0 min 0 W/m 5,1 C 1,9 C 20,9 km/h (4 Bft)
20.02.2019 03:06 6,3 C 92 % 1015,7 hPa 0,0 l/m 14,2 km/h (3 Bft) SW 222 0 min 0 W/m 5,1 C 1,1 C 19,3 km/h (3 Bft)
20.02.2019 03:09 6,3 C 92 % 1015,7 hPa 0,0 l/m 15,2 km/h (3 Bft) SW 225 0 min 0 W/m 5,1 C 0,6 C 22,5 km/h (4 Bft)
20.02.2019 03:12 6,3 C 92 % 1015,7 hPa 0,0 l/m 15,5 km/h (3 Bft) SW 227 0 min 0 W/m 5,1 C 0,4 C 20,9 km/h (4 Bft)
20.02.2019 03:15 6,3 C 92 % 1015,7 hPa 0,0 l/m 12,8 km/h (3 Bft) W-SW 237 0 min 0 W/m 5,1 C 1,8 C 19,3 km/h (3 Bft)
20.02.2019 03:18 6,3 C 92 % 1015,8 hPa 0,0 l/m 15,0 km/h (3 Bft) SW 227 0 min 0 W/m 5,1 C 0,7 C 22,5 km/h (4 Bft)
20.02.2019 03:21 6,3 C 92 % 1015,7 hPa 0,0 l/m 14,3 km/h (3 Bft) W-SW 248 0 min 0 W/m 5,1 C 1,0 C 22,5 km/h (4 Bft)
20.02.2019 03:24 6,3 C 92 % 1015,7 hPa 0,0 l/m 15,1 km/h (3 Bft) S-SW 206 0 min 0 W/m 5,1 C 0,6 C 24,1 km/h (4 Bft)
20.02.2019 03:27 6,2 C 92 % 1015,8 hPa 0,0 l/m 14,6 km/h (3 Bft) SW 227 0 min 0 W/m 5,0 C 0,7 C 22,5 km/h (4 Bft)
20.02.2019 03:30 6,2 C 92 % 1015,7 hPa 0,0 l/m 15,4 km/h (3 Bft) SW 229 0 min 0 W/m 5,0 C 0,3 C 25,7 km/h (4 Bft)
20.02.2019 03:33 6,2 C 92 % 1015,7 hPa 0,0 l/m 13,9 km/h (3 Bft) SW 225 0 min 0 W/m 5,0 C 1,1 C 20,9 km/h (4 Bft)
20.02.2019 03:36 6,2 C 92 % 1015,7 hPa 0,0 l/m 14,6 km/h (3 Bft) SW 236 0 min 0 W/m 5,0 C 0,7 C 24,1 km/h (4 Bft)
20.02.2019 03:39 6,2 C 92 % 1015,6 hPa 0,0 l/m 14,6 km/h (3 Bft) SW 234 0 min 0 W/m 5,0 C 0,7 C 22,5 km/h (4 Bft)
20.02.2019 03:42 6,2 C 92 % 1015,7 hPa 0,0 l/m 14,2 km/h (3 Bft) SW 216 0 min 0 W/m 5,0 C 0,9 C 22,5 km/h (4 Bft)
20.02.2019 03:45 6,2 C 92 % 1015,7 hPa 0,0 l/m 14,1 km/h (3 Bft) SW 235 0 min 0 W/m 5,0 C 1,0 C 20,9 km/h (4 Bft)
20.02.2019 03:48 6,2 C 92 % 1015,7 hPa 0,0 l/m 14,9 km/h (3 Bft) SW 234 0 min 0 W/m 5,0 C 0,6 C 22,5 km/h (4 Bft)
20.02.2019 03:51 6,2 C 92 % 1015,6 hPa 0,0 l/m 13,5 km/h (3 Bft) S-SW 212 0 min 0 W/m 5,0 C 1,3 C 20,9 km/h (4 Bft)
20.02.2019 03:54 6,2 C 92 % 1015,6 hPa 0,0 l/m 15,5 km/h (3 Bft) SW 224 0 min 0 W/m 5,0 C 0,3 C 24,1 km/h (4 Bft)
20.02.2019 03:57 6,2 C 92 % 1015,6 hPa 0,0 l/m 13,8 km/h (3 Bft) S-SW 212 0 min 0 W/m 5,0 C 1,1 C 20,9 km/h (4 Bft)
20.02.2019 04:00 6,2 C 92 % 1015,5 hPa 0,0 l/m 15,2 km/h (3 Bft) W 260 0 min 0 W/m 5,0 C 0,4 C 25,7 km/h (4 Bft)
20.02.2019 04:03 6,2 C 92 % 1015,5 hPa 0,0 l/m 13,4 km/h (3 Bft) W 259 0 min 0 W/m 5,0 C 1,4 C 25,7 km/h (4 Bft)
20.02.2019 04:06 6,2 C 92 % 1015,6 hPa 0,0 l/m 13,2 km/h (3 Bft) W-SW 250 0 min 0 W/m 5,0 C 1,5 C 20,9 km/h (4 Bft)
20.02.2019 04:09 6,2 C 92 % 1015,6 hPa 0,0 l/m 12,2 km/h (2 Bft) SW 235 0 min 0 W/m 5,0 C 2,0 C 24,1 km/h (4 Bft)
20.02.2019 04:12 6,2 C 92 % 1015,6 hPa 0,0 l/m 14,7 km/h (3 Bft) SW 233 0 min 0 W/m 5,0 C 0,7 C 24,1 km/h (4 Bft)
20.02.2019 04:15 6,2 C 92 % 1015,6 hPa 0,0 l/m 12,7 km/h (3 Bft) SW 217 0 min 0 W/m 5,0 C 1,7 C 22,5 km/h (4 Bft)
20.02.2019 04:18 6,2 C 92 % 1015,6 hPa 0,0 l/m 13,7 km/h (3 Bft) W-SW 238 0 min 0 W/m 5,0 C 1,2 C 22,5 km/h (4 Bft)
20.02.2019 04:21 6,2 C 92 % 1015,6 hPa 0,0 l/m 17,0 km/h (3 Bft) W-SW 241 0 min 0 W/m 5,0 C -0,4 C 29,0 km/h (5 Bft)
20.02.2019 04:24 6,1 C 92 % 1015,6 hPa 0,0 l/m 14,1 km/h (3 Bft) S-SW 211 0 min 0 W/m 4,9 C 0,9 C 24,1 km/h (4 Bft)
20.02.2019 04:27 6,1 C 92 % 1015,6 hPa 0,0 l/m 14,5 km/h (3 Bft) SW 234 0 min 0 W/m 4,9 C 0,7 C 24,1 km/h (4 Bft)
20.02.2019 04:30 6,1 C 92 % 1015,5 hPa 0,0 l/m 14,9 km/h (3 Bft) W-SW 246 0 min 0 W/m 4,9 C 0,5 C 25,7 km/h (4 Bft)
20.02.2019 04:33 6,1 C 92 % 1015,6 hPa 0,0 l/m 17,6 km/h (3 Bft) S-SW 199 0 min 0 W/m 4,9 C -0,8 C 25,7 km/h (4 Bft)
20.02.2019 04:36 6,1 C 93 % 1015,6 hPa 0,0 l/m 15,0 km/h (3 Bft) SW 229 0 min 0 W/m 5,1 C 0,4 C 25,7 km/h (4 Bft)
20.02.2019 04:39 6,1 C 93 % 1015,6 hPa 0,0 l/m 16,5 km/h (3 Bft) SW 221 0 min 0 W/m 5,1 C -0,3 C 24,1 km/h (4 Bft)
20.02.2019 04:42 6,1 C 93 % 1015,6 hPa 0,0 l/m 15,9 km/h (3 Bft) S-SW 211 0 min 0 W/m 5,1 C -0,0 C 24,1 km/h (4 Bft)
20.02.2019 04:45 6,1 C 93 % 1015,6 hPa 0,0 l/m 15,6 km/h (3 Bft) SW 221 0 min 0 W/m 5,1 C 0,1 C 25,7 km/h (4 Bft)
20.02.2019 04:48 6,1 C 93 % 1015,7 hPa 0,0 l/m 16,7 km/h (3 Bft) SW 219 0 min 0 W/m 5,1 C -0,4 C 29,0 km/h (5 Bft)
20.02.2019 04:51 6,1 C 93 % 1015,7 hPa 0,0 l/m 14,3 km/h (3 Bft) W-SW 239 0 min 0 W/m 5,1 C 0,8 C 24,1 km/h (4 Bft)
20.02.2019 04:54 6,1 C 93 % 1015,7 hPa 0,0 l/m 15,1 km/h (3 Bft) SW 218 0 min 0 W/m 5,1 C 0,4 C 25,7 km/h (4 Bft)
20.02.2019 04:57 6,1 C 93 % 1015,8 hPa 0,0 l/m 14,6 km/h (3 Bft) S 190 0 min 0 W/m 5,1 C 0,6 C 25,7 km/h (4 Bft)
20.02.2019 05:00 6,1 C 93 % 1015,7 hPa 0,0 l/m 15,1 km/h (3 Bft) W-SW 243 0 min 0 W/m 5,1 C 0,4 C 22,5 km/h (4 Bft)
20.02.2019 05:03 6,1 C 93 % 1015,7 hPa 0,0 l/m 15,9 km/h (3 Bft) W-SW 241 0 min 0 W/m 5,1 C -0,0 C 25,7 km/h (4 Bft)
20.02.2019 05:06 6,1 C 93 % 1015,7 hPa 0,0 l/m 15,0 km/h (3 Bft) SW 223 0 min 0 W/m 5,1 C 0,4 C 24,1 km/h (4 Bft)
20.02.2019 05:09 6,1 C 93 % 1015,7 hPa 0,0 l/m 15,8 km/h (3 Bft) SW 217 0 min 0 W/m 5,1 C 0,0 C 25,7 km/h (4 Bft)
20.02.2019 05:12 6,1 C 93 % 1015,8 hPa 0,0 l/m 16,3 km/h (3 Bft) SW 234 0 min 0 W/m 5,1 C -0,2 C 24,1 km/h (4 Bft)
20.02.2019 05:15 6,1 C 93 % 1015,7 hPa 0,0 l/m 13,7 km/h (3 Bft) S-SW 200 0 min 0 W/m 5,1 C 1,1 C 22,5 km/h (4 Bft)
20.02.2019 05:18 6,1 C 93 % 1015,7 hPa 0,0 l/m 14,5 km/h (3 Bft) S-SW 213 0 min 0 W/m 5,1 C 0,7 C 27,4 km/h (5 Bft)
20.02.2019 05:21 6,1 C 93 % 1015,7 hPa 0,0 l/m 14,2 km/h (3 Bft) SW 218 0 min 0 W/m 5,1 C 0,8 C 24,1 km/h (4 Bft)
20.02.2019 05:24 6,0 C 93 % 1015,7 hPa 0,0 l/m 14,3 km/h (3 Bft) SW 236 0 min 0 W/m 5,0 C 0,6 C 25,7 km/h (4 Bft)
20.02.2019 05:27 6,1 C 93 % 1015,8 hPa 0,0 l/m 17,2 km/h (3 Bft) S-SW 213 0 min 0 W/m 5,1 C -0,6 C 25,7 km/h (4 Bft)
20.02.2019 05:30 6,0 C 93 % 1015,8 hPa 0,0 l/m 16,5 km/h (3 Bft) SW 223 0 min 0 W/m 5,0 C -0,4 C 25,7 km/h (4 Bft)
20.02.2019 05:33 6,1 C 93 % 1015,7 hPa 0,0 l/m 13,4 km/h (3 Bft) SW 230 0 min 0 W/m 5,1 C 1,2 C 20,9 km/h (4 Bft)
20.02.2019 05:36 6,0 C 93 % 1015,8 hPa 0,0 l/m 14,9 km/h (3 Bft) W-SW 254 0 min 0 W/m 5,0 C 0,3 C 22,5 km/h (4 Bft)
20.02.2019 05:39 6,0 C 93 % 1015,7 hPa 0,0 l/m 12,6 km/h (3 Bft) SW 231 0 min 0 W/m 5,0 C 1,6 C 20,9 km/h (4 Bft)
20.02.2019 05:42 6,0 C 93 % 1015,7 hPa 0,0 l/m 14,2 km/h (3 Bft) SW 223 0 min 0 W/m 5,0 C 0,7 C 22,5 km/h (4 Bft)
20.02.2019 05:45 6,0 C 93 % 1015,7 hPa 0,0 l/m 13,9 km/h (3 Bft) W-SW 253 0 min 0 W/m 5,0 C 0,8 C 24,1 km/h (4 Bft)
20.02.2019 05:48 5,9 C 93 % 1015,7 hPa 0,0 l/m 11,2 km/h (2 Bft) S-SW 212 0 min 0 W/m 4,9 C 2,3 C 19,3 km/h (3 Bft)
20.02.2019 05:51 5,9 C 93 % 1015,7 hPa 0,0 l/m 12,3 km/h (2 Bft) S-SW 213 0 min 0 W/m 4,9 C 1,6 C 19,3 km/h (3 Bft)
20.02.2019 05:54 5,9 C 93 % 1015,7 hPa 0,0 l/m 14,3 km/h (3 Bft) SW 225 0 min 0 W/m 4,9 C 0,5 C 22,5 km/h (4 Bft)
20.02.2019 05:57 5,9 C 93 % 1015,8 hPa 0,0 l/m 13,3 km/h (3 Bft) W-SW 244 0 min 0 W/m 4,9 C 1,1 C 20,9 km/h (4 Bft)
20.02.2019 06:00 5,9 C 93 % 1015,8 hPa 0,0 l/m 14,2 km/h (3 Bft) W-SW 239 0 min 0 W/m 4,9 C 0,6 C 24,1 km/h (4 Bft)
20.02.2019 06:03 5,9 C 93 % 1015,8 hPa 0,0 l/m 12,3 km/h (2 Bft) W 263 0 min 0 W/m 4,9 C 1,6 C 16,1 km/h (3 Bft)
20.02.2019 06:06 5,9 C 93 % 1015,8 hPa 0,0 l/m 14,0 km/h (3 Bft) SW 221 0 min 0 W/m 4,9 C 0,7 C 22,5 km/h (4 Bft)
20.02.2019 06:09 5,9 C 93 % 1015,8 hPa 0,0 l/m 14,2 km/h (3 Bft) S-SW 213 0 min 0 W/m 4,9 C 0,6 C 22,5 km/h (4 Bft)
20.02.2019 06:12 5,9 C 93 % 1015,8 hPa 0,0 l/m 16,9 km/h (3 Bft) SW 229 0 min 0 W/m 4,9 C -0,7 C 24,1 km/h (4 Bft)
20.02.2019 06:15 5,9 C 93 % 1015,9 hPa 0,0 l/m 12,2 km/h (2 Bft) S-SW 207 0 min 0 W/m 4,9 C 1,7 C 19,3 km/h (3 Bft)
20.02.2019 06:18 5,9 C 93 % 1015,8 hPa 0,0 l/m 12,4 km/h (2 Bft) W-SW 242 0 min 0 W/m 4,9 C 1,6 C 20,9 km/h (4 Bft)
20.02.2019 06:21 5,9 C 93 % 1015,9 hPa 0,0 l/m 14,5 km/h (3 Bft) SW 234 0 min 0 W/m 4,9 C 0,4 C 22,5 km/h (4 Bft)
20.02.2019 06:24 5,9 C 93 % 1015,8 hPa 0,0 l/m 10,5 km/h (2 Bft) SW 214 0 min 0 W/m 4,9 C 2,7 C 16,1 km/h (3 Bft)
20.02.2019 06:27 5,9 C 93 % 1015,9 hPa 0,0 l/m 13,4 km/h (3 Bft) SW 225 0 min 0 W/m 4,9 C 1,0 C 25,7 km/h (4 Bft)
20.02.2019 06:30 5,9 C 93 % 1015,9 hPa 0,0 l/m 13,0 km/h (3 Bft) W-SW 238 0 min 0 W/m 4,9 C 1,2 C 20,9 km/h (4 Bft)
20.02.2019 06:33 5,9 C 93 % 1015,8 hPa 0,0 l/m 11,2 km/h (2 Bft) W-SW 238 0 min 0 W/m 4,9 C 2,3 C 19,3 km/h (3 Bft)
20.02.2019 06:36 5,9 C 93 % 1015,9 hPa 0,0 l/m 11,9 km/h (2 Bft) SW 218 0 min 0 W/m 4,9 C 1,9 C 17,7 km/h (3 Bft)
20.02.2019 06:39 5,9 C 93 % 1015,9 hPa 0,0 l/m 10,5 km/h (2 Bft) SW 227 0 min 0 W/m 4,9 C 2,7 C 16,1 km/h (3 Bft)
20.02.2019 06:42 5,9 C 93 % 1015,8 hPa 0,0 l/m 9,7 km/h (2 Bft) S-SW 213 0 min 0 W/m 4,9 C 3,3 C 16,1 km/h (3 Bft)
20.02.2019 06:45 5,9 C 93 % 1015,9 hPa 0,0 l/m 11,3 km/h (2 Bft) W-SW 256 0 min 0 W/m 4,9 C 2,2 C 19,3 km/h (3 Bft)
20.02.2019 06:48 5,9 C 93 % 1015,9 hPa 0,0 l/m 11,4 km/h (2 Bft) SW 228 0 min 0 W/m 4,9 C 2,2 C 14,5 km/h (3 Bft)
20.02.2019 06:51 5,9 C 94 % 1015,9 hPa 0,0 l/m 13,4 km/h (3 Bft) W-SW 254 0 min 0 W/m 5,0 C 1,0 C 24,1 km/h (4 Bft)
20.02.2019 06:54 5,9 C 94 % 1015,9 hPa 0,0 l/m 11,2 km/h (2 Bft) SW 229 0 min 0 W/m 5,0 C 2,3 C 16,1 km/h (3 Bft)
20.02.2019 06:57 5,9 C 94 % 1015,9 hPa 0,0 l/m 11,7 km/h (2 Bft) W-SW 242 0 min 0 W/m 5,0 C 2,0 C 19,3 km/h (3 Bft)
20.02.2019 07:00 5,9 C 94 % 1016,0 hPa 0,0 l/m 12,8 km/h (3 Bft) SW 234 0 min 0 W/m 5,0 C 1,3 C 17,7 km/h (3 Bft)
20.02.2019 07:03 5,9 C 94 % 1016,0 hPa 0,0 l/m 11,8 km/h (2 Bft) SW 234 0 min 0 W/m 5,0 C 1,9 C 19,3 km/h (3 Bft)
20.02.2019 07:06 5,9 C 94 % 1016,1 hPa 0,0 l/m 9,3 km/h (2 Bft) SW 217 0 min 0 W/m 5,0 C 3,6 C 16,1 km/h (3 Bft)
20.02.2019 07:09 5,9 C 94 % 1016,1 hPa 0,0 l/m 11,2 km/h (2 Bft) SW 236 0 min 0 W/m 5,0 C 2,3 C 17,7 km/h (3 Bft)
20.02.2019 07:12 5,9 C 94 % 1016,1 hPa 0,0 l/m 12,4 km/h (2 Bft) SW 214 0 min 0 W/m 5,0 C 1,6 C 19,3 km/h (3 Bft)
20.02.2019 07:15 5,9 C 94 % 1016,1 hPa 0,0 l/m 12,3 km/h (2 Bft) S-SW 209 0 min 0 W/m 5,0 C 1,6 C 20,9 km/h (4 Bft)
20.02.2019 07:18 5,9 C 94 % 1016,1 hPa 0,0 l/m 12,6 km/h (3 Bft) W-SW 237 0 min 0 W/m 5,0 C 1,4 C 19,3 km/h (3 Bft)
20.02.2019 07:21 5,9 C 94 % 1016,1 hPa 0,0 l/m 13,3 km/h (3 Bft) W-SW 246 0 min 0 W/m 5,0 C 1,1 C 17,7 km/h (3 Bft)
20.02.2019 07:24 5,9 C 94 % 1016,0 hPa 0,0 l/m 13,2 km/h (3 Bft) SW 214 0 min 0 W/m 5,0 C 1,1 C 19,3 km/h (3 Bft)
20.02.2019 07:27 5,9 C 94 % 1016,1 hPa 0,0 l/m 12,3 km/h (2 Bft) SW 221 0 min 0 W/m 5,0 C 1,6 C 22,5 km/h (4 Bft)
20.02.2019 07:30 5,9 C 94 % 1016,1 hPa 0,0 l/m 12,3 km/h (2 Bft) W-SW 238 0 min 0 W/m 5,0 C 1,6 C 19,3 km/h (3 Bft)
20.02.2019 07:33 5,9 C 94 % 1016,1 hPa 0,0 l/m 12,3 km/h (2 Bft) S-SW 213 0 min 0 W/m 5,0 C 1,6 C 19,3 km/h (3 Bft)
20.02.2019 07:36 5,9 C 94 % 1016,2 hPa 0,0 l/m 11,4 km/h (2 Bft) SW 221 0 min 0 W/m 5,0 C 2,2 C 19,3 km/h (3 Bft)
20.02.2019 07:39 5,9 C 94 % 1016,2 hPa 0,0 l/m 13,6 km/h (3 Bft) SW 229 0 min 0 W/m 5,0 C 0,9 C 24,1 km/h (4 Bft)
20.02.2019 07:42 5,9 C 94 % 1016,2 hPa 0,0 l/m 12,9 km/h (3 Bft) SW 223 0 min 0 W/m 5,0 C 1,3 C 20,9 km/h (4 Bft)
20.02.2019 07:45 5,9 C 94 % 1016,3 hPa 0,0 l/m 12,7 km/h (3 Bft) SW 217 0 min 0 W/m 5,0 C 1,4 C 17,7 km/h (3 Bft)
20.02.2019 07:48 5,9 C 94 % 1016,3 hPa 0,0 l/m 12,0 km/h (2 Bft) SW 224 0 min 0 W/m 5,0 C 1,8 C 17,7 km/h (3 Bft)
20.02.2019 07:51 5,9 C 94 % 1016,4 hPa 0,0 l/m 12,1 km/h (2 Bft) SW 223 0 min 5 W/m 5,0 C 1,7 C 19,3 km/h (3 Bft)
20.02.2019 07:54 5,9 C 94 % 1016,4 hPa 0,0 l/m 13,7 km/h (3 Bft) S-SW 202 0 min 7 W/m 5,0 C 0,8 C 19,3 km/h (3 Bft)
20.02.2019 07:57 5,9 C 94 % 1016,4 hPa 0,0 l/m 13,2 km/h (3 Bft) SW 226 0 min 9 W/m 5,0 C 1,1 C 19,3 km/h (3 Bft)
20.02.2019 08:00 6,0 C 94 % 1016,4 hPa 0,0 l/m 10,3 km/h (2 Bft) SW 219 0 min 11 W/m 5,1 C 3,0 C 14,5 km/h (3 Bft)
20.02.2019 08:03 6,0 C 94 % 1016,4 hPa 0,0 l/m 11,2 km/h (2 Bft) SW 215 0 min 12 W/m 5,1 C 2,4 C 19,3 km/h (3 Bft)
20.02.2019 08:06 6,0 C 94 % 1016,3 hPa 0,0 l/m 12,6 km/h (3 Bft) SW 234 0 min 14 W/m 5,1 C 1,6 C 20,9 km/h (4 Bft)
20.02.2019 08:09 6,0 C 94 % 1016,3 hPa 0,0 l/m 11,6 km/h (2 Bft) SW 227 0 min 14 W/m 5,1 C 2,1 C 16,1 km/h (3 Bft)
20.02.2019 08:12 6,1 C 94 % 1016,3 hPa 0,0 l/m 13,3 km/h (3 Bft) W-SW 240 0 min 18 W/m 5,2 C 1,3 C 20,9 km/h (4 Bft)
20.02.2019 08:15 6,1 C 94 % 1016,4 hPa 0,0 l/m 13,5 km/h (3 Bft) SW 214 0 min 19 W/m 5,2 C 1,2 C 17,7 km/h (3 Bft)
20.02.2019 08:18 6,1 C 94 % 1016,5 hPa 0,0 l/m 14,2 km/h (3 Bft) SW 222 0 min 21 W/m 5,2 C 0,8 C 22,5 km/h (4 Bft)
20.02.2019 08:21 6,1 C 94 % 1016,4 hPa 0,0 l/m 13,2 km/h (3 Bft) W-SW 239 0 min 23 W/m 5,2 C 1,3 C 24,1 km/h (4 Bft)
20.02.2019 08:24 6,1 C 94 % 1016,5 hPa 0,0 l/m 12,8 km/h (3 Bft) W-SW 240 0 min 26 W/m 5,2 C 1,6 C 20,9 km/h (4 Bft)
20.02.2019 08:27 6,2 C 94 % 1016,5 hPa 0,0 l/m 15,7 km/h (3 Bft) SW 231 0 min 28 W/m 5,3 C 0,2 C 22,5 km/h (4 Bft)
20.02.2019 08:30 6,2 C 94 % 1016,5 hPa 0,0 l/m 13,6 km/h (3 Bft) W-SW 240 0 min 30 W/m 5,3 C 1,2 C 22,5 km/h (4 Bft)
20.02.2019 08:33 6,2 C 94 % 1016,7 hPa 0,0 l/m 14,1 km/h (3 Bft) SW 223 0 min 33 W/m 5,3 C 1,0 C 22,5 km/h (4 Bft)
20.02.2019 08:36 6,2 C 94 % 1016,7 hPa 0,0 l/m 14,3 km/h (3 Bft) W-SW 239 0 min 44 W/m 5,3 C 0,9 C 19,3 km/h (3 Bft)
20.02.2019 08:39 6,2 C 94 % 1016,8 hPa 0,0 l/m 12,4 km/h (2 Bft) SW 216 0 min 56 W/m 5,3 C 1,9 C 19,3 km/h (3 Bft)
20.02.2019 08:42 6,2 C 94 % 1016,8 hPa 0,0 l/m 12,8 km/h (3 Bft) SW 228 0 min 76 W/m 5,3 C 1,7 C 19,3 km/h (3 Bft)
20.02.2019 08:45 6,3 C 94 % 1016,8 hPa 0,0 l/m 11,6 km/h (2 Bft) SW 232 0 min 74 W/m 5,4 C 2,5 C 19,3 km/h (3 Bft)
20.02.2019 08:48 6,3 C 94 % 1016,8 hPa 0,0 l/m 13,2 km/h (3 Bft) SW 234 0 min 56 W/m 5,4 C 1,6 C 20,9 km/h (4 Bft)
20.02.2019 08:51 6,3 C 94 % 1016,9 hPa 0,0 l/m 13,8 km/h (3 Bft) W-SW 254 0 min 47 W/m 5,4 C 1,3 C 20,9 km/h (4 Bft)
20.02.2019 08:54 6,3 C 94 % 1016,9 hPa 0,0 l/m 14,0 km/h (3 Bft) SW 234 0 min 42 W/m 5,4 C 1,2 C 22,5 km/h (4 Bft)
20.02.2019 08:57 6,3 C 94 % 1017,0 hPa 0,0 l/m 14,3 km/h (3 Bft) S-SW 209 0 min 40 W/m 5,4 C 1,0 C 22,5 km/h (4 Bft)
20.02.2019 09:00 6,3 C 94 % 1017,0 hPa 0,0 l/m 12,9 km/h (3 Bft) SW 232 0 min 39 W/m 5,4 C 1,7 C 22,5 km/h (4 Bft)
20.02.2019 09:03 6,3 C 94 % 1017,1 hPa 0,0 l/m 12,7 km/h (3 Bft) S-SW 210 0 min 42 W/m 5,4 C 1,9 C 17,7 km/h (3 Bft)
20.02.2019 09:06 6,3 C 94 % 1017,1 hPa 0,0 l/m 12,4 km/h (2 Bft) SW 219 0 min 42 W/m 5,4 C 2,0 C 20,9 km/h (4 Bft)
20.02.2019 09:09 6,3 C 94 % 1017,1 hPa 0,0 l/m 13,2 km/h (3 Bft) SW 234 0 min 42 W/m 5,4 C 1,6 C 19,3 km/h (3 Bft)
20.02.2019 09:12 6,3 C 94 % 1017,1 hPa 0,0 l/m 12,8 km/h (3 Bft) SW 233 0 min 40 W/m 5,4 C 1,8 C 17,7 km/h (3 Bft)
20.02.2019 09:15 6,3 C 94 % 1017,1 hPa 0,0 l/m 12,6 km/h (3 Bft) SW 232 0 min 44 W/m 5,4 C 1,9 C 20,9 km/h (4 Bft)
20.02.2019 09:18 6,3 C 94 % 1017,2 hPa 0,0 l/m 13,1 km/h (3 Bft) W-SW 254 0 min 44 W/m 5,4 C 1,6 C 17,7 km/h (3 Bft)
20.02.2019 09:21 6,3 C 94 % 1017,2 hPa 0,0 l/m 13,3 km/h (3 Bft) SW 229 0 min 53 W/m 5,4 C 1,5 C 24,1 km/h (4 Bft)
20.02.2019 09:24 6,4 C 94 % 1017,3 hPa 0,0 l/m 13,5 km/h (3 Bft) SW 218 0 min 56 W/m 5,5 C 1,5 C 19,3 km/h (3 Bft)
20.02.2019 09:27 6,4 C 94 % 1017,3 hPa 0,0 l/m 13,9 km/h (3 Bft) SW 233 0 min 63 W/m 5,5 C 1,3 C 22,5 km/h (4 Bft)
20.02.2019 09:30 6,4 C 94 % 1017,3 hPa 0,0 l/m 13,3 km/h (3 Bft) S-SW 207 0 min 65 W/m 5,5 C 1,6 C 24,1 km/h (4 Bft)
20.02.2019 09:33 6,4 C 94 % 1017,4 hPa 0,0 l/m 13,1 km/h (3 Bft) S 191 0 min 69 W/m 5,5 C 1,7 C 20,9 km/h (4 Bft)
20.02.2019 09:36 6,4 C 94 % 1017,4 hPa 0,0 l/m 13,7 km/h (3 Bft) SW 233 0 min 69 W/m 5,5 C 1,4 C 20,9 km/h (4 Bft)
20.02.2019 09:39 6,4 C 94 % 1017,5 hPa 0,0 l/m 13,4 km/h (3 Bft) SW 231 0 min 63 W/m 5,5 C 1,6 C 20,9 km/h (4 Bft)
20.02.2019 09:42 6,5 C 94 % 1017,5 hPa 0,0 l/m 12,1 km/h (2 Bft) W-SW 244 0 min 65 W/m 5,6 C 2,4 C 22,5 km/h (4 Bft)
20.02.2019 09:45 6,5 C 94 % 1017,5 hPa 0,0 l/m 15,6 km/h (3 Bft) S-SW 192 0 min 65 W/m 5,6 C 0,6 C 25,7 km/h (4 Bft)
20.02.2019 09:48 6,5 C 94 % 1017,6 hPa 0,0 l/m 15,5 km/h (3 Bft) SW 225 0 min 63 W/m 5,6 C 0,7 C 20,9 km/h (4 Bft)
20.02.2019 09:51 6,6 C 94 % 1017,6 hPa 0,0 l/m 12,6 km/h (3 Bft) SW 214 0 min 65 W/m 5,7 C 2,3 C 19,3 km/h (3 Bft)
20.02.2019 09:54 6,6 C 94 % 1017,7 hPa 0,0 l/m 13,8 km/h (3 Bft) SW 214 0 min 70 W/m 5,7 C 1,6 C 19,3 km/h (3 Bft)
20.02.2019 09:57 6,6 C 94 % 1017,7 hPa 0,0 l/m 13,4 km/h (3 Bft) S-SW 199 0 min 76 W/m 5,7 C 1,8 C 19,3 km/h (3 Bft)
20.02.2019 10:00 6,6 C 94 % 1017,7 hPa 0,0 l/m 14,5 km/h (3 Bft) SW 217 0 min 76 W/m 5,7 C 1,3 C 20,9 km/h (4 Bft)
20.02.2019 10:03 6,6 C 94 % 1017,8 hPa 0,0 l/m 13,3 km/h (3 Bft) S-SW 211 0 min 93 W/m 5,7 C 1,9 C 20,9 km/h (4 Bft)
20.02.2019 10:06 6,7 C 94 % 1017,8 hPa 0,0 l/m 12,3 km/h (2 Bft) SW 217 0 min 100 W/m 5,8 C 2,5 C 20,9 km/h (4 Bft)
20.02.2019 10:09 6,7 C 94 % 1017,9 hPa 0,0 l/m 13,8 km/h (3 Bft) SW 232 0 min 104 W/m 5,8 C 1,7 C 24,1 km/h (4 Bft)
20.02.2019 10:12 6,7 C 94 % 1017,9 hPa 0,0 l/m 12,4 km/h (2 Bft) SW 227 0 min 102 W/m 5,8 C 2,5 C 20,9 km/h (4 Bft)
20.02.2019 10:15 6,8 C 94 % 1018,0 hPa 0,0 l/m 14,7 km/h (3 Bft) SW 229 0 min 95 W/m 5,9 C 1,4 C 22,5 km/h (4 Bft)
20.02.2019 10:18 6,8 C 94 % 1018,0 hPa 0,0 l/m 13,9 km/h (3 Bft) S-SW 208 0 min 88 W/m 5,9 C 1,8 C 22,5 km/h (4 Bft)
20.02.2019 10:21 6,8 C 94 % 1018,0 hPa 0,0 l/m 13,2 km/h (3 Bft) SW 220 0 min 81 W/m 5,9 C 2,2 C 19,3 km/h (3 Bft)
20.02.2019 10:24 6,8 C 94 % 1018,0 hPa 0,0 l/m 14,2 km/h (3 Bft) SW 223 0 min 79 W/m 5,9 C 1,6 C 20,9 km/h (4 Bft)
20.02.2019 10:27 6,8 C 94 % 1018,0 hPa 0,0 l/m 14,5 km/h (3 Bft) S-SW 205 0 min 91 W/m 5,9 C 1,5 C 22,5 km/h (4 Bft)
20.02.2019 10:30 6,8 C 94 % 1018,0 hPa 0,0 l/m 13,4 km/h (3 Bft) SW 217 0 min 97 W/m 5,9 C 2,1 C 25,7 km/h (4 Bft)
20.02.2019 10:33 6,9 C 94 % 1018,0 hPa 0,0 l/m 16,6 km/h (3 Bft) SW 215 0 min 102 W/m 6,0 C 0,6 C 29,0 km/h (5 Bft)
20.02.2019 10:36 6,9 C 94 % 1018,1 hPa 0,0 l/m 13,8 km/h (3 Bft) SW 235 0 min 102 W/m 6,0 C 2,0 C 20,9 km/h (4 Bft)
20.02.2019 10:39 6,9 C 94 % 1018,2 hPa 0,0 l/m 13,3 km/h (3 Bft) SW 229 0 min 102 W/m 6,0 C 2,2 C 20,9 km/h (4 Bft)
20.02.2019 10:42 7,0 C 94 % 1018,2 hPa 0,0 l/m 14,9 km/h (3 Bft) SW 223 0 min 104 W/m 6,1 C 1,5 C 24,1 km/h (4 Bft)
20.02.2019 10:45 7,0 C 94 % 1018,2 hPa 0,0 l/m 13,1 km/h (3 Bft) S-SW 204 0 min 105 W/m 6,1 C 2,5 C 19,3 km/h (3 Bft)
20.02.2019 10:48 7,1 C 94 % 1018,3 hPa 0,0 l/m 13,7 km/h (3 Bft) S-SW 211 0 min 104 W/m 6,2 C 2,3 C 19,3 km/h (3 Bft)
20.02.2019 10:51 7,1 C 94 % 1018,2 hPa 0,0 l/m 14,5 km/h (3 Bft) SW 234 0 min 102 W/m 6,2 C 1,9 C 19,3 km/h (3 Bft)
20.02.2019 10:54 7,1 C 94 % 1018,2 hPa 0,0 l/m 13,9 km/h (3 Bft) SW 224 0 min 97 W/m 6,2 C 2,2 C 17,7 km/h (3 Bft)
20.02.2019 10:57 7,1 C 94 % 1018,3 hPa 0,0 l/m 18,8 km/h (3 Bft) S-SW 208 0 min 88 W/m 6,2 C -0,0 C 27,4 km/h (5 Bft)
20.02.2019 11:00 7,1 C 94 % 1018,3 hPa 0,0 l/m 14,6 km/h (3 Bft) SW 225 0 min 83 W/m 6,2 C 1,8 C 22,5 km/h (4 Bft)
20.02.2019 11:03 7,1 C 94 % 1018,3 hPa 0,0 l/m 15,9 km/h (3 Bft) SW 217 0 min 79 W/m 6,2 C 1,2 C 24,1 km/h (4 Bft)
20.02.2019 11:06 7,1 C 93 % 1018,4 hPa 0,0 l/m 13,9 km/h (3 Bft) S-SW 213 0 min 91 W/m 6,0 C 2,2 C 19,3 km/h (3 Bft)
20.02.2019 11:09 7,1 C 93 % 1018,4 hPa 0,0 l/m 17,8 km/h (3 Bft) SW 216 0 min 95 W/m 6,0 C 0,4 C 24,1 km/h (4 Bft)
20.02.2019 11:12 7,1 C 93 % 1018,4 hPa 0,0 l/m 13,9 km/h (3 Bft) SW 223 0 min 102 W/m 6,0 C 2,2 C 24,1 km/h (4 Bft)
20.02.2019 11:15 7,2 C 93 % 1018,5 hPa 0,0 l/m 15,1 km/h (3 Bft) SW 219 0 min 104 W/m 6,1 C 1,7 C 24,1 km/h (4 Bft)
20.02.2019 11:18 7,2 C 93 % 1018,6 hPa 0,0 l/m 14,3 km/h (3 Bft) S-SW 197 0 min 107 W/m 6,1 C 2,1 C 20,9 km/h (4 Bft)
20.02.2019 11:21 7,2 C 93 % 1018,6 hPa 0,0 l/m 13,1 km/h (3 Bft) SW 229 0 min 116 W/m 6,1 C 2,7 C 19,3 km/h (3 Bft)
20.02.2019 11:24 7,3 C 93 % 1018,6 hPa 0,0 l/m 14,8 km/h (3 Bft) S-SW 198 0 min 128 W/m 6,2 C 2,0 C 20,9 km/h (4 Bft)
20.02.2019 11:27 7,3 C 93 % 1018,6 hPa 0,0 l/m 15,1 km/h (3 Bft) SW 225 0 min 141 W/m 6,2 C 1,8 C 22,5 km/h (4 Bft)
20.02.2019 11:30 7,4 C 93 % 1018,7 hPa 0,0 l/m 10,6 km/h (2 Bft) S-SW 213 0 min 121 W/m 6,3 C 4,3 C 17,7 km/h (3 Bft)
20.02.2019 11:33 7,4 C 93 % 1018,8 hPa 0,0 l/m 13,4 km/h (3 Bft) SW 219 0 min 144 W/m 6,3 C 2,8 C 20,9 km/h (4 Bft)
20.02.2019 11:36 7,5 C 93 % 1018,8 hPa 0,0 l/m 12,1 km/h (2 Bft) SW 217 0 min 111 W/m 6,4 C 3,6 C 20,9 km/h (4 Bft)
20.02.2019 11:39 7,5 C 93 % 1018,8 hPa 0,0 l/m 16,1 km/h (3 Bft) SW 225 0 min 104 W/m 6,4 C 1,6 C 24,1 km/h (4 Bft)
20.02.2019 11:42 7,5 C 93 % 1018,9 hPa 0,0 l/m 12,9 km/h (3 Bft) S-SW 210 0 min 86 W/m 6,4 C 3,1 C 19,3 km/h (3 Bft)
20.02.2019 11:45 7,5 C 93 % 1018,9 hPa 0,0 l/m 12,5 km/h (2 Bft) SW 219 0 min 91 W/m 6,4 C 3,4 C 24,1 km/h (4 Bft)
20.02.2019 11:48 7,5 C 93 % 1018,9 hPa 0,0 l/m 13,0 km/h (3 Bft) SW 235 0 min 90 W/m 6,4 C 3,1 C 20,9 km/h (4 Bft)
20.02.2019 11:51 7,5 C 93 % 1019,0 hPa 0,0 l/m 14,3 km/h (3 Bft) SW 221 0 min 95 W/m 6,4 C 2,4 C 20,9 km/h (4 Bft)
20.02.2019 11:54 7,5 C 92 % 1019,0 hPa 0,0 l/m 14,1 km/h (3 Bft) SW 219 0 min 91 W/m 6,3 C 2,5 C 24,1 km/h (4 Bft)
20.02.2019 11:57 7,4 C 92 % 1019,0 hPa 0,0 l/m 15,5 km/h (3 Bft) S 190 0 min 100 W/m 6,2 C 1,8 C 24,1 km/h (4 Bft)
20.02.2019 12:00 7,5 C 92 % 1018,9 hPa 0,0 l/m 12,5 km/h (2 Bft) SW 230 0 min 109 W/m 6,3 C 3,4 C 19,3 km/h (3 Bft)
20.02.2019 12:03 7,5 C 92 % 1018,9 hPa 0,0 l/m 14,2 km/h (3 Bft) SW 223 0 min 111 W/m 6,3 C 2,5 C 22,5 km/h (4 Bft)
20.02.2019 12:06 7,5 C 92 % 1018,9 hPa 0,0 l/m 14,4 km/h (3 Bft) SW 231 0 min 151 W/m 6,3 C 2,4 C 19,3 km/h (3 Bft)
20.02.2019 12:09 7,6 C 92 % 1018,9 hPa 0,0 l/m 14,0 km/h (3 Bft) SW 221 0 min 174 W/m 6,4 C 2,7 C 20,9 km/h (4 Bft)
20.02.2019 12:12 7,7 C 92 % 1018,9 hPa 0,0 l/m 11,1 km/h (2 Bft) SW 222 0 min 172 W/m 6,5 C 4,4 C 17,7 km/h (3 Bft)
20.02.2019 12:15 7,8 C 92 % 1018,9 hPa 0,0 l/m 12,1 km/h (2 Bft) S-SW 196 0 min 135 W/m 6,6 C 3,9 C 20,9 km/h (4 Bft)
20.02.2019 12:18 7,8 C 92 % 1018,8 hPa 0,0 l/m 11,7 km/h (2 Bft) S-SW 206 0 min 176 W/m 6,6 C 4,1 C 17,7 km/h (3 Bft)
20.02.2019 12:21 7,8 C 92 % 1018,8 hPa 0,0 l/m 15,8 km/h (3 Bft) S-SW 209 0 min 178 W/m 6,6 C 2,1 C 25,7 km/h (4 Bft)
20.02.2019 12:24 7,8 C 92 % 1018,8 hPa 0,0 l/m 12,8 km/h (3 Bft) S-SW 206 0 min 200 W/m 6,6 C 3,6 C 20,9 km/h (4 Bft)
20.02.2019 12:27 7,9 C 92 % 1018,8 hPa 0,0 l/m 13,2 km/h (3 Bft) SW 224 0 min 179 W/m 6,7 C 3,5 C 20,9 km/h (4 Bft)
20.02.2019 12:30 7,9 C 92 % 1018,8 hPa 0,0 l/m 15,4 km/h (3 Bft) SW 220 0 min 163 W/m 6,7 C 2,4 C 24,1 km/h (4 Bft)
20.02.2019 12:33 8,0 C 92 % 1018,7 hPa 0,0 l/m 11,6 km/h (2 Bft) S-SW 208 0 min 158 W/m 6,8 C 4,4 C 17,7 km/h (3 Bft)
20.02.2019 12:36 8,0 C 92 % 1018,7 hPa 0,0 l/m 12,1 km/h (2 Bft) S-SW 197 0 min 193 W/m 6,8 C 4,2 C 22,5 km/h (4 Bft)
20.02.2019 12:39 8,1 C 91 % 1018,7 hPa 0,0 l/m 13,0 km/h (3 Bft) S-SW 207 0 min 220 W/m 6,7 C 3,8 C 27,4 km/h (5 Bft)
20.02.2019 12:42 8,1 C 91 % 1018,7 hPa 0,0 l/m 13,9 km/h (3 Bft) W-SW 242 0 min 229 W/m 6,7 C 3,3 C 22,5 km/h (4 Bft)
20.02.2019 12:45 8,2 C 91 % 1018,7 hPa 0,0 l/m 13,7 km/h (3 Bft) SW 218 0 min 211 W/m 6,8 C 3,6 C 19,3 km/h (3 Bft)
20.02.2019 12:48 8,2 C 91 % 1018,7 hPa 0,0 l/m 13,6 km/h (3 Bft) SW 231 0 min 158 W/m 6,8 C 3,6 C 20,9 km/h (4 Bft)
20.02.2019 12:51 8,2 C 91 % 1018,8 hPa 0,0 l/m 12,1 km/h (2 Bft) SW 219 0 min 139 W/m 6,8 C 4,4 C 20,9 km/h (4 Bft)
20.02.2019 12:54 8,2 C 90 % 1018,8 hPa 0,0 l/m 15,4 km/h (3 Bft) SW 225 0 min 142 W/m 6,7 C 2,8 C 24,1 km/h (4 Bft)
20.02.2019 12:57 8,2 C 90 % 1018,8 hPa 0,0 l/m 14,6 km/h (3 Bft) SW 215 0 min 137 W/m 6,7 C 3,1 C 20,9 km/h (4 Bft)
20.02.2019 13:00 8,1 C 90 % 1018,8 hPa 0,0 l/m 17,5 km/h (3 Bft) SW 216 0 min 116 W/m 6,6 C 1,8 C 27,4 km/h (5 Bft)
20.02.2019 13:03 8,1 C 90 % 1018,8 hPa 0,0 l/m 12,5 km/h (2 Bft) W-SW 238 0 min 123 W/m 6,6 C 4,1 C 22,5 km/h (4 Bft)
20.02.2019 13:06 8,1 C 90 % 1018,8 hPa 0,0 l/m 12,9 km/h (3 Bft) W-SW 238 0 min 132 W/m 6,6 C 3,8 C 19,3 km/h (3 Bft)
20.02.2019 13:09 8,1 C 90 % 1018,8 hPa 0,0 l/m 11,6 km/h (2 Bft) S-SW 203 0 min 141 W/m 6,6 C 4,5 C 16,1 km/h (3 Bft)
20.02.2019 13:12 8,1 C 90 % 1018,9 hPa 0,0 l/m 13,2 km/h (3 Bft) SW 219 0 min 125 W/m 6,6 C 3,7 C 24,1 km/h (4 Bft)
20.02.2019 13:15 8,1 C 90 % 1018,9 hPa 0,0 l/m 15,3 km/h (3 Bft) SW 223 0 min 137 W/m 6,6 C 2,7 C 22,5 km/h (4 Bft)
20.02.2019 13:18 8,1 C 90 % 1018,9 hPa 0,0 l/m 12,0 km/h (2 Bft) SW 226 0 min 153 W/m 6,6 C 4,3 C 20,9 km/h (4 Bft)
20.02.2019 13:21 8,1 C 90 % 1018,9 hPa 0,0 l/m 13,2 km/h (3 Bft) SW 228 0 min 172 W/m 6,6 C 3,7 C 20,9 km/h (4 Bft)
20.02.2019 13:24 8,1 C 90 % 1018,9 hPa 0,0 l/m 13,9 km/h (3 Bft) S-SW 205 0 min 155 W/m 6,6 C 3,3 C 20,9 km/h (4 Bft)
20.02.2019 13:27 8,2 C 90 % 1018,9 hPa 0,0 l/m 13,6 km/h (3 Bft) SW 234 0 min 142 W/m 6,7 C 3,6 C 25,7 km/h (4 Bft)
20.02.2019 13:30 8,2 C 90 % 1018,9 hPa 0,0 l/m 14,2 km/h (3 Bft) S-SW 200 0 min 123 W/m 6,7 C 3,3 C 22,5 km/h (4 Bft)
20.02.2019 13:33 8,2 C 90 % 1018,9 hPa 0,0 l/m 11,9 km/h (2 Bft) S-SW 200 0 min 169 W/m 6,7 C 4,5 C 19,3 km/h (3 Bft)
20.02.2019 13:36 8,3 C 90 % 1018,9 hPa 0,0 l/m 11,7 km/h (2 Bft) SW 219 3 min 265 W/m 6,8 C 4,7 C 19,3 km/h (3 Bft)
20.02.2019 13:39 8,4 C 90 % 1018,8 hPa 0,0 l/m 11,5 km/h (2 Bft) SW 220 3 min 306 W/m 6,9 C 4,9 C 17,7 km/h (3 Bft)
20.02.2019 13:42 8,5 C 89 % 1018,8 hPa 0,0 l/m 15,5 km/h (3 Bft) SW 215 3 min 251 W/m 6,8 C 3,1 C 24,1 km/h (4 Bft)
20.02.2019 13:45 8,6 C 89 % 1018,9 hPa 0,0 l/m 15,8 km/h (3 Bft) SW 221 0 min 151 W/m 6,9 C 3,1 C 20,9 km/h (4 Bft)
20.02.2019 13:48 8,5 C 89 % 1018,9 hPa 0,0 l/m 14,6 km/h (3 Bft) SW 236 0 min 132 W/m 6,8 C 3,5 C 24,1 km/h (4 Bft)
20.02.2019 13:51 8,4 C 89 % 1018,9 hPa 0,0 l/m 18,6 km/h (3 Bft) SW 232 0 min 132 W/m 6,7 C 1,7 C 27,4 km/h (5 Bft)
20.02.2019 13:54 8,5 C 89 % 1018,9 hPa 0,0 l/m 14,9 km/h (3 Bft) S-SW 212 0 min 100 W/m 6,8 C 3,4 C 22,5 km/h (4 Bft)
20.02.2019 13:57 8,5 C 88 % 1019,0 hPa 0,0 l/m 13,8 km/h (3 Bft) SW 215 0 min 123 W/m 6,6 C 3,9 C 20,9 km/h (4 Bft)
20.02.2019 14:00 8,5 C 88 % 1019,0 hPa 0,0 l/m 14,7 km/h (3 Bft) S-SW 211 0 min 113 W/m 6,6 C 3,5 C 24,1 km/h (4 Bft)
20.02.2019 14:03 8,5 C 88 % 1018,9 hPa 0,0 l/m 15,4 km/h (3 Bft) S-SW 205 0 min 128 W/m 6,6 C 3,1 C 22,5 km/h (4 Bft)
20.02.2019 14:06 8,6 C 88 % 1019,0 hPa 0,0 l/m 13,0 km/h (3 Bft) S 179 0 min 127 W/m 6,7 C 4,4 C 20,9 km/h (4 Bft)
20.02.2019 14:09 8,6 C 88 % 1019,0 hPa 0,0 l/m 12,1 km/h (2 Bft) S-SW 209 0 min 113 W/m 6,7 C 4,8 C 20,9 km/h (4 Bft)
20.02.2019 14:12 8,6 C 88 % 1018,9 hPa 0,0 l/m 12,8 km/h (3 Bft) S 186 0 min 93 W/m 6,7 C 4,5 C 24,1 km/h (4 Bft)
20.02.2019 14:15 8,6 C 88 % 1018,9 hPa 0,0 l/m 15,5 km/h (3 Bft) SW 229 0 min 97 W/m 6,7 C 3,2 C 22,5 km/h (4 Bft)
20.02.2019 14:18 8,6 C 88 % 1018,9 hPa 0,0 l/m 13,4 km/h (3 Bft) S-SW 200 0 min 90 W/m 6,7 C 4,2 C 19,3 km/h (3 Bft)
20.02.2019 14:21 8,6 C 88 % 1018,9 hPa 0,0 l/m 14,9 km/h (3 Bft) S 190 0 min 91 W/m 6,7 C 3,5 C 22,5 km/h (4 Bft)
20.02.2019 14:24 8,6 C 88 % 1018,9 hPa 0,0 l/m 13,2 km/h (3 Bft) S-SW 208 0 min 83 W/m 6,7 C 4,3 C 22,5 km/h (4 Bft)
20.02.2019 14:27 8,5 C 88 % 1018,9 hPa 0,0 l/m 13,3 km/h (3 Bft) SW 219 0 min 72 W/m 6,6 C 4,1 C 20,9 km/h (4 Bft)
20.02.2019 14:30 8,5 C 88 % 1018,8 hPa 0,0 l/m 11,9 km/h (2 Bft) SW 217 0 min 63 W/m 6,6 C 4,8 C 20,9 km/h (4 Bft)
20.02.2019 14:33 8,5 C 88 % 1018,8 hPa 0,0 l/m 13,4 km/h (3 Bft) SW 217 0 min 63 W/m 6,6 C 4,1 C 20,9 km/h (4 Bft)
20.02.2019 14:36 8,5 C 88 % 1018,7 hPa 0,0 l/m 14,7 km/h (3 Bft) SW 220 0 min 56 W/m 6,6 C 3,5 C 22,5 km/h (4 Bft)
20.02.2019 14:39 8,5 C 88 % 1018,9 hPa 0,0 l/m 12,8 km/h (3 Bft) SW 224 0 min 46 W/m 6,6 C 4,4 C 20,9 km/h (4 Bft)
20.02.2019 14:42 8,5 C 88 % 1018,8 hPa 0,0 l/m 11,7 km/h (2 Bft) SW 221 0 min 51 W/m 6,6 C 4,9 C 16,1 km/h (3 Bft)
20.02.2019 14:45 8,5 C 88 % 1018,9 hPa 0,0 l/m 12,9 km/h (3 Bft) SW 232 0 min 33 W/m 6,6 C 4,3 C 19,3 km/h (3 Bft)
20.02.2019 14:48 8,4 C 88 % 1018,8 hPa 0,0 l/m 13,0 km/h (3 Bft) SW 234 0 min 30 W/m 6,5 C 4,1 C 20,9 km/h (4 Bft)
20.02.2019 14:51 8,4 C 88 % 1018,9 hPa 0,0 l/m 13,6 km/h (3 Bft) SW 215 0 min 25 W/m 6,5 C 3,9 C 19,3 km/h (3 Bft)
20.02.2019 14:54 8,4 C 88 % 1018,9 hPa 0,0 l/m 12,5 km/h (2 Bft) S-SW 213 0 min 19 W/m 6,5 C 4,4 C 17,7 km/h (3 Bft)
20.02.2019 14:57 8,4 C 88 % 1018,9 hPa 0,0 l/m 12,0 km/h (2 Bft) S-SW 208 0 min 32 W/m 6,5 C 4,7 C 17,7 km/h (3 Bft)
20.02.2019 15:00 8,4 C 88 % 1018,8 hPa 0,0 l/m 11,9 km/h (2 Bft) S-SW 192 0 min 26 W/m 6,5 C 4,7 C 19,3 km/h (3 Bft)
20.02.2019 15:03 8,4 C 88 % 1018,9 hPa 0,0 l/m 10,8 km/h (2 Bft) SW 231 0 min 32 W/m 6,5 C 5,3 C 17,7 km/h (3 Bft)
20.02.2019 15:06 8,4 C 88 % 1018,8 hPa 0,0 l/m 13,5 km/h (3 Bft) SW 230 0 min 62 W/m 6,5 C 3,9 C 20,9 km/h (4 Bft)
20.02.2019 15:09 8,4 C 88 % 1018,8 hPa 0,0 l/m 10,2 km/h (2 Bft) S-SW 205 0 min 53 W/m 6,5 C 5,7 C 16,1 km/h (3 Bft)
20.02.2019 15:12 8,4 C 88 % 1018,8 hPa 0,0 l/m 13,6 km/h (3 Bft) S-SW 213 0 min 53 W/m 6,5 C 3,9 C 19,3 km/h (3 Bft)
20.02.2019 15:15 8,4 C 88 % 1018,9 hPa 0,0 l/m 14,4 km/h (3 Bft) SW 215 0 min 42 W/m 6,5 C 3,5 C 22,5 km/h (4 Bft)
20.02.2019 15:18 8,4 C 88 % 1018,8 hPa 0,0 l/m 9,8 km/h (2 Bft) SW 228 0 min 44 W/m 6,5 C 6,0 C 14,5 km/h (3 Bft)
20.02.2019 15:21 8,4 C 88 % 1018,9 hPa 0,0 l/m 11,9 km/h (2 Bft) SW 223 0 min 49 W/m 6,5 C 4,7 C 19,3 km/h (3 Bft)
20.02.2019 15:24 8,4 C 88 % 1018,9 hPa 0,0 l/m 10,9 km/h (2 Bft) SW 219 0 min 32 W/m 6,5 C 5,3 C 17,7 km/h (3 Bft)
20.02.2019 15:27 8,4 C 88 % 1018,9 hPa 0,0 l/m 13,8 km/h (3 Bft) SW 236 0 min 44 W/m 6,5 C 3,8 C 20,9 km/h (4 Bft)
20.02.2019 15:30 8,4 C 89 % 1018,9 hPa 0,0 l/m 12,6 km/h (3 Bft) S-SW 206 0 min 44 W/m 6,7 C 4,4 C 20,9 km/h (4 Bft)
20.02.2019 15:33 8,4 C 89 % 1018,9 hPa 0,0 l/m 11,8 km/h (2 Bft) SW 221 0 min 35 W/m 6,7 C 4,8 C 19,3 km/h (3 Bft)
20.02.2019 15:36 8,4 C 89 % 1018,9 hPa 0,0 l/m 13,1 km/h (3 Bft) SW 218 0 min 40 W/m 6,7 C 4,1 C 22,5 km/h (4 Bft)
20.02.2019 15:39 8,4 C 89 % 1019,0 hPa 0,0 l/m 10,5 km/h (2 Bft) SW 218 0 min 33 W/m 6,7 C 5,5 C 16,1 km/h (3 Bft)
20.02.2019 15:42 8,4 C 89 % 1019,0 hPa 0,0 l/m 11,2 km/h (2 Bft) SW 221 0 min 37 W/m 6,7 C 5,1 C 16,1 km/h (3 Bft)
20.02.2019 15:45 8,3 C 89 % 1018,9 hPa 0,0 l/m 9,9 km/h (2 Bft) SW 235 0 min 25 W/m 6,6 C 5,8 C 16,1 km/h (3 Bft)
20.02.2019 15:48 8,3 C 89 % 1018,9 hPa 0,0 l/m 11,2 km/h (2 Bft) S-SW 210 0 min 35 W/m 6,6 C 5,0 C 20,9 km/h (4 Bft)
20.02.2019 15:51 8,3 C 89 % 1018,9 hPa 0,0 l/m 10,6 km/h (2 Bft) S-SW 209 0 min 33 W/m 6,6 C 5,4 C 17,7 km/h (3 Bft)
20.02.2019 15:54 8,3 C 90 % 1018,9 hPa 0,0 l/m 11,7 km/h (2 Bft) SW 216 0 min 30 W/m 6,8 C 4,7 C 22,5 km/h (4 Bft)
20.02.2019 15:57 8,3 C 90 % 1018,8 hPa 0,0 l/m 12,4 km/h (2 Bft) S-SW 211 0 min 28 W/m 6,8 C 4,3 C 17,7 km/h (3 Bft)
20.02.2019 16:00 8,3 C 90 % 1018,8 hPa 0,0 l/m 11,9 km/h (2 Bft) SW 215 0 min 30 W/m 6,8 C 4,6 C 19,3 km/h (3 Bft)
20.02.2019 16:03 8,3 C 90 % 1018,8 hPa 0,0 l/m 11,0 km/h (2 Bft) S-SW 197 0 min 32 W/m 6,8 C 5,1 C 17,7 km/h (3 Bft)
20.02.2019 16:06 8,3 C 90 % 1018,8 hPa 0,0 l/m 10,4 km/h (2 Bft) S-SW 212 0 min 21 W/m 6,8 C 5,5 C 17,7 km/h (3 Bft)
20.02.2019 16:09 8,3 C 90 % 1018,9 hPa 0,0 l/m 9,2 km/h (2 Bft) SW 225 0 min 26 W/m 6,8 C 6,2 C 14,5 km/h (3 Bft)
20.02.2019 16:12 8,3 C 90 % 1018,9 hPa 0,0 l/m 12,0 km/h (2 Bft) S-SW 213 0 min 23 W/m 6,8 C 4,6 C 22,5 km/h (4 Bft)
20.02.2019 16:15 8,3 C 90 % 1018,9 hPa 0,0 l/m 10,2 km/h (2 Bft) S-SW 205 0 min 21 W/m 6,8 C 5,6 C 17,7 km/h (3 Bft)
20.02.2019 16:18 8,3 C 90 % 1018,9 hPa 0,0 l/m 9,3 km/h (2 Bft) S 175 0 min 19 W/m 6,8 C 6,2 C 16,1 km/h (3 Bft)
20.02.2019 16:21 8,3 C 90 % 1018,9 hPa 0,0 l/m 10,1 km/h (2 Bft) S 190 0 min 19 W/m 6,8 C 5,7 C 16,1 km/h (3 Bft)
20.02.2019 16:24 8,2 C 90 % 1018,8 hPa 0,0 l/m 9,7 km/h (2 Bft) S-SW 200 0 min 12 W/m 6,7 C 5,8 C 16,1 km/h (3 Bft)
20.02.2019 16:27 8,2 C 90 % 1018,8 hPa 0,0 l/m 9,7 km/h (2 Bft) S-SW 208 0 min 11 W/m 6,7 C 5,8 C 14,5 km/h (3 Bft)
20.02.2019 16:30 8,2 C 90 % 1018,9 hPa 0,0 l/m 11,6 km/h (2 Bft) S 184 0 min 9 W/m 6,7 C 4,7 C 17,7 km/h (3 Bft)
20.02.2019 16:33 8,2 C 90 % 1018,9 hPa 0,0 l/m 10,2 km/h (2 Bft) S-SW 211 0 min 7 W/m 6,7 C 5,5 C 17,7 km/h (3 Bft)
20.02.2019 16:36 8,2 C 90 % 1018,9 hPa 0,0 l/m 10,7 km/h (2 Bft) SW 221 0 min 5 W/m 6,7 C 5,2 C 17,7 km/h (3 Bft)
20.02.2019 16:39 8,2 C 89 % 1018,9 hPa 0,0 l/m 12,9 km/h (3 Bft) SW 216 0 min 7 W/m 6,5 C 4,0 C 19,3 km/h (3 Bft)
20.02.2019 16:42 8,2 C 89 % 1018,9 hPa 0,0 l/m 11,1 km/h (2 Bft) SW 223 0 min 7 W/m 6,5 C 4,9 C 19,3 km/h (3 Bft)
20.02.2019 16:45 8,2 C 89 % 1018,9 hPa 0,0 l/m 12,1 km/h (2 Bft) SW 216 0 min 9 W/m 6,5 C 4,4 C 19,3 km/h (3 Bft)
20.02.2019 16:48 8,2 C 89 % 1018,9 hPa 0,0 l/m 11,8 km/h (2 Bft) S-SW 207 0 min 7 W/m 6,5 C 4,6 C 22,5 km/h (4 Bft)
20.02.2019 16:51 8,3 C 89 % 1018,9 hPa 0,0 l/m 13,3 km/h (3 Bft) S 178 0 min 9 W/m 6,6 C 3,9 C 22,5 km/h (4 Bft)
20.02.2019 16:54 8,3 C 88 % 1018,9 hPa 0,0 l/m 12,7 km/h (3 Bft) S-SW 209 0 min 9 W/m 6,4 C 4,2 C 20,9 km/h (4 Bft)
20.02.2019 16:57 8,3 C 88 % 1018,9 hPa 0,0 l/m 13,5 km/h (3 Bft) SW 226 0 min 11 W/m 6,4 C 3,8 C 20,9 km/h (4 Bft)
20.02.2019 17:00 8,3 C 88 % 1018,8 hPa 0,0 l/m 11,4 km/h (2 Bft) S-SW 208 0 min 7 W/m 6,4 C 4,9 C 17,7 km/h (3 Bft)
20.02.2019 17:03 8,3 C 88 % 1018,9 hPa 0,0 l/m 17,3 km/h (3 Bft) SW 225 0 min 7 W/m 6,4 C 2,1 C 27,4 km/h (5 Bft)
20.02.2019 17:06 8,3 C 87 % 1018,9 hPa 0,0 l/m 14,2 km/h (3 Bft) SW 216 0 min 5 W/m 6,3 C 3,4 C 22,5 km/h (4 Bft)
20.02.2019 17:09 8,4 C 87 % 1018,9 hPa 0,0 l/m 13,9 km/h (3 Bft) S-SW 212 0 min 7 W/m 6,4 C 3,7 C 17,7 km/h (3 Bft)
20.02.2019 17:12 8,4 C 87 % 1018,9 hPa 0,0 l/m 11,7 km/h (2 Bft) W-SW 241 0 min 7 W/m 6,4 C 4,8 C 16,1 km/h (3 Bft)
20.02.2019 17:15 8,4 C 87 % 1018,9 hPa 0,0 l/m 12,7 km/h (3 Bft) SW 216 0 min 5 W/m 6,4 C 4,3 C 19,3 km/h (3 Bft)
20.02.2019 17:18 8,4 C 86 % 1018,9 hPa 0,0 l/m 13,3 km/h (3 Bft) SW 226 0 min 5 W/m 6,2 C 4,0 C 19,3 km/h (3 Bft)
20.02.2019 17:21 8,4 C 86 % 1019,0 hPa 0,0 l/m 12,8 km/h (3 Bft) SW 223 0 min 0 W/m 6,2 C 4,3 C 17,7 km/h (3 Bft)
20.02.2019 17:24 8,4 C 86 % 1018,9 hPa 0,0 l/m 11,8 km/h (2 Bft) SW 236 0 min 0 W/m 6,2 C 4,8 C 17,7 km/h (3 Bft)
20.02.2019 17:27 8,4 C 86 % 1019,0 hPa 0,0 l/m 12,9 km/h (3 Bft) SW 223 0 min 0 W/m 6,2 C 4,2 C 25,7 km/h (4 Bft)
20.02.2019 17:30 8,5 C 86 % 1019,0 hPa 0,0 l/m 15,4 km/h (3 Bft) SW 220 0 min 0 W/m 6,3 C 3,1 C 20,9 km/h (4 Bft)
20.02.2019 17:33 8,5 C 85 % 1019,0 hPa 0,0 l/m 13,8 km/h (3 Bft) SW 232 0 min 0 W/m 6,1 C 3,9 C 20,9 km/h (4 Bft)
20.02.2019 17:36 8,5 C 85 % 1018,9 hPa 0,0 l/m 13,3 km/h (3 Bft) S 187 0 min 0 W/m 6,1 C 4,1 C 20,9 km/h (4 Bft)
20.02.2019 17:39 8,5 C 85 % 1018,9 hPa 0,0 l/m 14,8 km/h (3 Bft) SW 234 0 min 5 W/m 6,1 C 3,4 C 22,5 km/h (4 Bft)
20.02.2019 17:42 8,5 C 85 % 1018,8 hPa 0,0 l/m 14,1 km/h (3 Bft) SW 234 0 min 7 W/m 6,1 C 3,7 C 20,9 km/h (4 Bft)
20.02.2019 17:45 8,5 C 85 % 1018,9 hPa 0,0 l/m 14,7 km/h (3 Bft) S-SW 209 0 min 7 W/m 6,1 C 3,5 C 22,5 km/h (4 Bft)
20.02.2019 17:48 8,5 C 85 % 1018,9 hPa 0,0 l/m 12,8 km/h (3 Bft) SW 223 0 min 5 W/m 6,1 C 4,4 C 19,3 km/h (3 Bft)
20.02.2019 17:51 8,5 C 85 % 1018,9 hPa 0,0 l/m 15,4 km/h (3 Bft) W-SW 250 0 min 0 W/m 6,1 C 3,1 C 22,5 km/h (4 Bft)
20.02.2019 17:54 8,5 C 85 % 1018,9 hPa 0,0 l/m 10,9 km/h (2 Bft) SW 221 0 min 0 W/m 6,1 C 5,4 C 16,1 km/h (3 Bft)
20.02.2019 17:57 8,5 C 85 % 1018,9 hPa 0,0 l/m 12,8 km/h (3 Bft) SW 227 0 min 0 W/m 6,1 C 4,4 C 19,3 km/h (3 Bft)
20.02.2019 18:00 8,5 C 85 % 1018,9 hPa 0,0 l/m 13,0 km/h (3 Bft) SW 215 0 min 0 W/m 6,1 C 4,3 C 22,5 km/h (4 Bft)
20.02.2019 18:03 8,5 C 85 % 1018,9 hPa 0,0 l/m 12,4 km/h (2 Bft) SW 222 0 min 0 W/m 6,1 C 4,6 C 17,7 km/h (3 Bft)
20.02.2019 18:06 8,5 C 85 % 1018,9 hPa 0,0 l/m 13,0 km/h (3 Bft) SW 222 0 min 0 W/m 6,1 C 4,3 C 19,3 km/h (3 Bft)
20.02.2019 18:09 8,5 C 85 % 1018,9 hPa 0,0 l/m 13,9 km/h (3 Bft) SW 219 0 min 0 W/m 6,1 C 3,8 C 22,5 km/h (4 Bft)
20.02.2019 18:12 8,5 C 85 % 1019,0 hPa 0,0 l/m 11,9 km/h (2 Bft) SW 227 0 min 0 W/m 6,1 C 4,8 C 16,1 km/h (3 Bft)
20.02.2019 18:15 8,6 C 85 % 1018,9 hPa 0,0 l/m 12,3 km/h (2 Bft) SW 225 0 min 0 W/m 6,2 C 4,7 C 20,9 km/h (4 Bft)
20.02.2019 18:18 8,6 C 85 % 1019,0 hPa 0,0 l/m 14,2 km/h (3 Bft) SW 227 0 min 0 W/m 6,2 C 3,8 C 24,1 km/h (4 Bft)
20.02.2019 18:21 8,6 C 85 % 1019,0 hPa 0,0 l/m 12,3 km/h (2 Bft) S-SW 211 0 min 0 W/m 6,2 C 4,7 C 19,3 km/h (3 Bft)
20.02.2019 18:24 8,6 C 84 % 1019,0 hPa 0,0 l/m 13,3 km/h (3 Bft) S-SW 213 0 min 0 W/m 6,1 C 4,2 C 19,3 km/h (3 Bft)
20.02.2019 18:27 8,6 C 84 % 1019,1 hPa 0,0 l/m 11,9 km/h (2 Bft) SW 228 0 min 0 W/m 6,1 C 5,0 C 17,7 km/h (3 Bft)
20.02.2019 18:30 8,6 C 84 % 1019,1 hPa 0,0 l/m 12,1 km/h (2 Bft) S-SW 197 0 min 0 W/m 6,1 C 4,8 C 17,7 km/h (3 Bft)
20.02.2019 18:33 8,6 C 84 % 1019,1 hPa 0,0 l/m 13,0 km/h (3 Bft) S-SW 207 0 min 0 W/m 6,1 C 4,4 C 19,3 km/h (3 Bft)
20.02.2019 18:36 8,6 C 84 % 1019,1 hPa 0,0 l/m 11,3 km/h (2 Bft) W 271 0 min 0 W/m 6,1 C 5,3 C 17,7 km/h (3 Bft)
20.02.2019 18:39 8,6 C 84 % 1019,1 hPa 0,0 l/m 11,4 km/h (2 Bft) SW 219 0 min 0 W/m 6,1 C 5,2 C 17,7 km/h (3 Bft)
20.02.2019 18:42 8,6 C 84 % 1019,0 hPa 0,0 l/m 10,9 km/h (2 Bft) S-SW 213 0 min 0 W/m 6,1 C 5,5 C 16,1 km/h (3 Bft)
20.02.2019 18:45 8,6 C 84 % 1019,1 hPa 0,0 l/m 12,1 km/h (2 Bft) S-SW 196 0 min 0 W/m 6,1 C 4,8 C 20,9 km/h (4 Bft)
20.02.2019 18:48 8,6 C 84 % 1019,0 hPa 0,0 l/m 12,3 km/h (2 Bft) SW 216 0 min 0 W/m 6,1 C 4,7 C 17,7 km/h (3 Bft)
20.02.2019 18:51 8,6 C 84 % 1019,0 hPa 0,0 l/m 13,1 km/h (3 Bft) SW 223 0 min 0 W/m 6,1 C 4,3 C 20,9 km/h (4 Bft)
20.02.2019 18:54 8,6 C 83 % 1019,0 hPa 0,0 l/m 11,3 km/h (2 Bft) SW 227 0 min 0 W/m 5,9 C 5,3 C 16,1 km/h (3 Bft)
20.02.2019 18:57 8,7 C 83 % 1019,0 hPa 0,0 l/m 12,6 km/h (3 Bft) SW 215 0 min 0 W/m 6,0 C 4,7 C 20,9 km/h (4 Bft)
20.02.2019 19:00 8,7 C 83 % 1019,1 hPa 0,0 l/m 12,1 km/h (2 Bft) W-SW 242 0 min 0 W/m 6,0 C 5,0 C 22,5 km/h (4 Bft)
20.02.2019 19:03 8,7 C 83 % 1019,1 hPa 0,0 l/m 14,1 km/h (3 Bft) S-SW 212 0 min 0 W/m 6,0 C 4,0 C 27,4 km/h (5 Bft)
20.02.2019 19:06 8,7 C 83 % 1019,1 hPa 0,0 l/m 15,6 km/h (3 Bft) S-SW 203 0 min 0 W/m 6,0 C 3,3 C 24,1 km/h (4 Bft)
20.02.2019 19:09 8,7 C 83 % 1019,1 hPa 0,0 l/m 11,5 km/h (2 Bft) S-SW 198 0 min 0 W/m 6,0 C 5,3 C 16,1 km/h (3 Bft)
20.02.2019 19:12 8,7 C 83 % 1019,1 hPa 0,0 l/m 12,8 km/h (3 Bft) SW 215 0 min 0 W/m 6,0 C 4,6 C 20,9 km/h (4 Bft)
20.02.2019 19:15 8,7 C 82 % 1019,1 hPa 0,0 l/m 11,9 km/h (2 Bft) SW 224 0 min 0 W/m 5,8 C 5,1 C 17,7 km/h (3 Bft)
20.02.2019 19:18 8,8 C 82 % 1019,1 hPa 0,0 l/m 16,6 km/h (3 Bft) S-SW 192 0 min 0 W/m 5,9 C 3,0 C 29,0 km/h (5 Bft)
20.02.2019 19:21 8,8 C 82 % 1019,2 hPa 0,0 l/m 13,6 km/h (3 Bft) S-SW 207 0 min 0 W/m 5,9 C 4,3 C 20,9 km/h (4 Bft)
20.02.2019 19:24 8,8 C 82 % 1019,2 hPa 0,0 l/m 14,0 km/h (3 Bft) SW 231 0 min 0 W/m 5,9 C 4,1 C 20,9 km/h (4 Bft)
20.02.2019 19:27 8,8 C 82 % 1019,2 hPa 0,0 l/m 14,8 km/h (3 Bft) SW 219 0 min 0 W/m 5,9 C 3,8 C 27,4 km/h (5 Bft)
20.02.2019 19:30 8,8 C 82 % 1019,2 hPa 0,0 l/m 14,1 km/h (3 Bft) SW 236 0 min 0 W/m 5,9 C 4,1 C 24,1 km/h (4 Bft)
20.02.2019 19:33 8,8 C 82 % 1019,2 hPa 0,0 l/m 14,4 km/h (3 Bft) SW 219 0 min 0 W/m 5,9 C 4,0 C 20,9 km/h (4 Bft)
20.02.2019 19:36 8,8 C 82 % 1019,2 hPa 0,0 l/m 14,6 km/h (3 Bft) SW 221 0 min 0 W/m 5,9 C 3,9 C 20,9 km/h (4 Bft)
20.02.2019 19:39 8,9 C 81 % 1019,2 hPa 0,0 l/m 16,0 km/h (3 Bft) SW 224 0 min 0 W/m 5,8 C 3,4 C 24,1 km/h (4 Bft)
20.02.2019 19:42 8,9 C 81 % 1019,2 hPa 0,0 l/m 16,0 km/h (3 Bft) SW 215 0 min 0 W/m 5,8 C 3,4 C 24,1 km/h (4 Bft)
20.02.2019 19:45 8,9 C 81 % 1019,2 hPa 0,0 l/m 13,7 km/h (3 Bft) S-SW 213 0 min 0 W/m 5,8 C 4,4 C 19,3 km/h (3 Bft)
20.02.2019 19:48 8,9 C 81 % 1019,3 hPa 0,0 l/m 13,1 km/h (3 Bft) SW 236 0 min 0 W/m 5,8 C 4,7 C 20,9 km/h (4 Bft)
20.02.2019 19:51 8,9 C 81 % 1019,3 hPa 0,0 l/m 12,9 km/h (3 Bft) SW 223 0 min 0 W/m 5,8 C 4,8 C 20,9 km/h (4 Bft)
20.02.2019 19:54 8,8 C 81 % 1019,3 hPa 0,0 l/m 10,9 km/h (2 Bft) SW 221 0 min 0 W/m 5,7 C 5,7 C 14,5 km/h (3 Bft)
20.02.2019 19:57 8,8 C 81 % 1019,3 hPa 0,0 l/m 12,9 km/h (3 Bft) SW 217 0 min 0 W/m 5,7 C 4,7 C 19,3 km/h (3 Bft)
20.02.2019 20:00 8,8 C 81 % 1019,3 hPa 0,0 l/m 15,4 km/h (3 Bft) SW 236 0 min 0 W/m 5,7 C 3,5 C 19,3 km/h (3 Bft)
20.02.2019 20:03 8,8 C 81 % 1019,4 hPa 0,0 l/m 14,1 km/h (3 Bft) SW 219 0 min 0 W/m 5,7 C 4,1 C 22,5 km/h (4 Bft)
20.02.2019 20:06 8,8 C 81 % 1019,3 hPa 0,0 l/m 16,1 km/h (3 Bft) SW 232 0 min 0 W/m 5,7 C 3,2 C 25,7 km/h (4 Bft)
20.02.2019 20:09 8,9 C 80 % 1019,3 hPa 0,0 l/m 17,7 km/h (3 Bft) S-SW 203 0 min 0 W/m 5,6 C 2,7 C 29,0 km/h (5 Bft)
20.02.2019 20:12 8,9 C 80 % 1019,3 hPa 0,0 l/m 16,5 km/h (3 Bft) SW 216 0 min 0 W/m 5,6 C 3,2 C 25,7 km/h (4 Bft)
20.02.2019 20:15 8,9 C 80 % 1019,4 hPa 0,0 l/m 15,7 km/h (3 Bft) SW 236 0 min 0 W/m 5,6 C 3,5 C 22,5 km/h (4 Bft)
20.02.2019 20:18 8,9 C 80 % 1019,4 hPa 0,0 l/m 16,5 km/h (3 Bft) SW 233 0 min 0 W/m 5,6 C 3,2 C 22,5 km/h (4 Bft)
20.02.2019 20:21 8,9 C 80 % 1019,4 hPa 0,0 l/m 13,1 km/h (3 Bft) SW 219 0 min 0 W/m 5,6 C 4,7 C 20,9 km/h (4 Bft)
20.02.2019 20:24 8,9 C 80 % 1019,5 hPa 0,0 l/m 16,2 km/h (3 Bft) SW 230 0 min 0 W/m 5,6 C 3,3 C 27,4 km/h (5 Bft)
20.02.2019 20:27 8,9 C 80 % 1019,4 hPa 0,0 l/m 16,0 km/h (3 Bft) S-SW 209 0 min 0 W/m 5,6 C 3,4 C 24,1 km/h (4 Bft)
20.02.2019 20:30 9,0 C 80 % 1019,5 hPa 0,0 l/m 15,2 km/h (3 Bft) SW 217 0 min 0 W/m 5,7 C 3,8 C 24,1 km/h (4 Bft)
20.02.2019 20:33 9,0 C 80 % 1019,5 hPa 0,0 l/m 17,4 km/h (3 Bft) SW 223 0 min 0 W/m 5,7 C 2,9 C 27,4 km/h (5 Bft)
20.02.2019 20:36 9,0 C 80 % 1019,5 hPa 0,0 l/m 13,5 km/h (3 Bft) SW 220 0 min 0 W/m 5,7 C 4,6 C 24,1 km/h (4 Bft)
20.02.2019 20:39 9,0 C 80 % 1019,5 hPa 0,0 l/m 13,9 km/h (3 Bft) SW 219 0 min 0 W/m 5,7 C 4,4 C 20,9 km/h (4 Bft)
20.02.2019 20:42 9,0 C 80 % 1019,5 hPa 0,0 l/m 13,9 km/h (3 Bft) W-SW 241 0 min 0 W/m 5,7 C 4,4 C 19,3 km/h (3 Bft)
20.02.2019 20:45 8,9 C 80 % 1019,5 hPa 0,0 l/m 13,3 km/h (3 Bft) SW 219 0 min 0 W/m 5,6 C 4,6 C 20,9 km/h (4 Bft)
20.02.2019 20:48 8,9 C 80 % 1019,5 hPa 0,0 l/m 13,1 km/h (3 Bft) SW 230 0 min 0 W/m 5,6 C 4,7 C 22,5 km/h (4 Bft)
20.02.2019 20:51 8,9 C 80 % 1019,4 hPa 0,0 l/m 13,7 km/h (3 Bft) SW 234 0 min 0 W/m 5,6 C 4,4 C 19,3 km/h (3 Bft)
20.02.2019 20:54 8,8 C 80 % 1019,5 hPa 0,0 l/m 11,9 km/h (2 Bft) SW 221 0 min 0 W/m 5,5 C 5,2 C 19,3 km/h (3 Bft)
20.02.2019 20:57 8,8 C 80 % 1019,5 hPa 0,0 l/m 12,8 km/h (3 Bft) S-SW 198 0 min 0 W/m 5,5 C 4,7 C 19,3 km/h (3 Bft)
20.02.2019 21:00 8,8 C 81 % 1019,5 hPa 0,0 l/m 12,9 km/h (3 Bft) SW 223 0 min 0 W/m 5,7 C 4,7 C 20,9 km/h (4 Bft)
20.02.2019 21:03 8,8 C 81 % 1019,5 hPa 0,0 l/m 12,8 km/h (3 Bft) SW 230 0 min 0 W/m 5,7 C 4,7 C 24,1 km/h (4 Bft)
20.02.2019 21:06 8,7 C 81 % 1019,5 hPa 0,0 l/m 11,1 km/h (2 Bft) SW 225 0 min 0 W/m 5,6 C 5,5 C 17,7 km/h (3 Bft)
20.02.2019 21:09 8,7 C 81 % 1019,4 hPa 0,0 l/m 11,0 km/h (2 Bft) S 191 0 min 0 W/m 5,6 C 5,6 C 16,1 km/h (3 Bft)
20.02.2019 21:12 8,7 C 81 % 1019,4 hPa 0,0 l/m 12,3 km/h (2 Bft) S-SW 207 0 min 0 W/m 5,6 C 4,9 C 19,3 km/h (3 Bft)
20.02.2019 21:15 8,7 C 81 % 1019,4 hPa 0,0 l/m 10,8 km/h (2 Bft) SW 221 0 min 0 W/m 5,6 C 5,7 C 16,1 km/h (3 Bft)
20.02.2019 21:18 8,6 C 81 % 1019,4 hPa 0,0 l/m 12,0 km/h (2 Bft) SW 221 0 min 0 W/m 5,5 C 4,9 C 19,3 km/h (3 Bft)
20.02.2019 21:21 8,6 C 82 % 1019,4 hPa 0,0 l/m 13,0 km/h (3 Bft) SW 227 0 min 0 W/m 5,7 C 4,4 C 19,3 km/h (3 Bft)
20.02.2019 21:24 8,6 C 82 % 1019,4 hPa 0,0 l/m 12,7 km/h (3 Bft) S-SW 209 0 min 0 W/m 5,7 C 4,5 C 19,3 km/h (3 Bft)
20.02.2019 21:27 8,6 C 82 % 1019,4 hPa 0,0 l/m 14,6 km/h (3 Bft) SW 234 0 min 0 W/m 5,7 C 3,6 C 22,5 km/h (4 Bft)
20.02.2019 21:30 8,6 C 82 % 1019,5 hPa 0,0 l/m 14,7 km/h (3 Bft) SW 234 0 min 0 W/m 5,7 C 3,6 C 22,5 km/h (4 Bft)
20.02.2019 21:33 8,7 C 81 % 1019,5 hPa 0,0 l/m 15,2 km/h (3 Bft) SW 224 0 min 0 W/m 5,6 C 3,5 C 20,9 km/h (4 Bft)
20.02.2019 21:36 8,7 C 81 % 1019,5 hPa 0,0 l/m 16,3 km/h (3 Bft) SW 234 0 min 0 W/m 5,6 C 3,0 C 25,7 km/h (4 Bft)
20.02.2019 21:39 8,7 C 81 % 1019,5 hPa 0,0 l/m 17,1 km/h (3 Bft) SW 226 0 min 0 W/m 5,6 C 2,7 C 24,1 km/h (4 Bft)
20.02.2019 21:42 8,8 C 81 % 1019,5 hPa 0,0 l/m 16,4 km/h (3 Bft) SW 229 0 min 0 W/m 5,7 C 3,1 C 25,7 km/h (4 Bft)
20.02.2019 21:45 8,8 C 80 % 1019,5 hPa 0,0 l/m 17,2 km/h (3 Bft) SW 227 0 min 0 W/m 5,5 C 2,8 C 27,4 km/h (5 Bft)
20.02.2019 21:48 8,8 C 80 % 1019,5 hPa 0,0 l/m 19,3 km/h (3 Bft) SW 215 0 min 0 W/m 5,5 C 2,0 C 30,6 km/h (5 Bft)
20.02.2019 21:51 8,8 C 80 % 1019,5 hPa 0,0 l/m 15,3 km/h (3 Bft) SW 229 0 min 0 W/m 5,5 C 3,5 C 25,7 km/h (4 Bft)
20.02.2019 21:54 8,9 C 80 % 1019,6 hPa 0,0 l/m 17,0 km/h (3 Bft) W-SW 238 0 min 0 W/m 5,6 C 3,0 C 27,4 km/h (5 Bft)
20.02.2019 21:57 8,9 C 80 % 1019,6 hPa 0,0 l/m 18,5 km/h (3 Bft) SW 217 0 min 0 W/m 5,6 C 2,4 C 29,0 km/h (5 Bft)
20.02.2019 22:00 8,9 C 79 % 1019,5 hPa 0,0 l/m 15,0 km/h (3 Bft) W-SW 242 0 min 0 W/m 5,5 C 3,8 C 27,4 km/h (5 Bft)
20.02.2019 22:03 8,8 C 79 % 1019,5 hPa 0,0 l/m 17,0 km/h (3 Bft) SW 227 0 min 0 W/m 5,4 C 2,8 C 24,1 km/h (4 Bft)
20.02.2019 22:06 8,8 C 79 % 1019,5 hPa 0,0 l/m 17,2 km/h (3 Bft) SW 215 0 min 0 W/m 5,4 C 2,8 C 24,1 km/h (4 Bft)
20.02.2019 22:09 8,8 C 79 % 1019,6 hPa 0,0 l/m 16,9 km/h (3 Bft) SW 217 0 min 0 W/m 5,4 C 2,9 C 27,4 km/h (5 Bft)
20.02.2019 22:12 8,8 C 79 % 1019,5 hPa 0,0 l/m 15,9 km/h (3 Bft) SW 220 0 min 0 W/m 5,4 C 3,3 C 22,5 km/h (4 Bft)
20.02.2019 22:15 8,8 C 79 % 1019,5 hPa 0,0 l/m 17,3 km/h (3 Bft) W-SW 245 0 min 0 W/m 5,4 C 2,7 C 29,0 km/h (5 Bft)
20.02.2019 22:18 8,8 C 79 % 1019,5 hPa 0,0 l/m 17,3 km/h (3 Bft) S-SW 208 0 min 0 W/m 5,4 C 2,7 C 25,7 km/h (4 Bft)
20.02.2019 22:21 8,8 C 80 % 1019,6 hPa 0,0 l/m 15,4 km/h (3 Bft) SW 225 0 min 0 W/m 5,5 C 3,5 C 25,7 km/h (4 Bft)
20.02.2019 22:24 8,7 C 80 % 1019,6 hPa 0,0 l/m 14,2 km/h (3 Bft) SW 219 0 min 0 W/m 5,4 C 3,9 C 20,9 km/h (4 Bft)
20.02.2019 22:27 8,7 C 80 % 1019,6 hPa 0,0 l/m 14,9 km/h (3 Bft) W-SW 240 0 min 0 W/m 5,4 C 3,6 C 22,5 km/h (4 Bft)
20.02.2019 22:30 8,7 C 80 % 1019,7 hPa 0,0 l/m 13,7 km/h (3 Bft) W-SW 239 0 min 0 W/m 5,4 C 4,2 C 22,5 km/h (4 Bft)
20.02.2019 22:33 8,6 C 80 % 1019,6 hPa 0,0 l/m 17,6 km/h (3 Bft) SW 229 0 min 0 W/m 5,3 C 2,4 C 29,0 km/h (5 Bft)
20.02.2019 22:36 8,6 C 80 % 1019,7 hPa 0,0 l/m 19,3 km/h (3 Bft) SW 228 0 min 0 W/m 5,3 C 1,7 C 27,4 km/h (5 Bft)
20.02.2019 22:39 8,6 C 80 % 1019,7 hPa 0,0 l/m 17,0 km/h (3 Bft) S-SW 209 0 min 0 W/m 5,3 C 2,6 C 25,7 km/h (4 Bft)
20.02.2019 22:42 8,6 C 80 % 1019,7 hPa 0,0 l/m 15,6 km/h (3 Bft) W-SW 252 0 min 0 W/m 5,3 C 3,2 C 29,0 km/h (5 Bft)
20.02.2019 22:45 8,6 C 80 % 1019,7 hPa 0,0 l/m 15,4 km/h (3 Bft) SW 217 0 min 0 W/m 5,3 C 3,3 C 24,1 km/h (4 Bft)
20.02.2019 22:48 8,6 C 80 % 1019,7 hPa 0,0 l/m 16,0 km/h (3 Bft) SW 215 0 min 0 W/m 5,3 C 3,0 C 25,7 km/h (4 Bft)
20.02.2019 22:51 8,6 C 79 % 1019,7 hPa 0,0 l/m 17,8 km/h (3 Bft) S-SW 204 0 min 0 W/m 5,2 C 2,3 C 29,0 km/h (5 Bft)
20.02.2019 22:54 8,6 C 79 % 1019,7 hPa 0,0 l/m 13,7 km/h (3 Bft) SW 229 0 min 0 W/m 5,2 C 4,0 C 25,7 km/h (4 Bft)
20.02.2019 22:57 8,6 C 79 % 1019,7 hPa 0,0 l/m 14,6 km/h (3 Bft) W-SW 243 0 min 0 W/m 5,2 C 3,6 C 22,5 km/h (4 Bft)
20.02.2019 23:00 8,6 C 79 % 1019,7 hPa 0,0 l/m 17,0 km/h (3 Bft) S-SW 210 0 min 0 W/m 5,2 C 2,6 C 25,7 km/h (4 Bft)
20.02.2019 23:03 8,6 C 79 % 1019,7 hPa 0,0 l/m 14,5 km/h (3 Bft) S-SW 209 0 min 0 W/m 5,2 C 3,7 C 19,3 km/h (3 Bft)
20.02.2019 23:06 8,5 C 79 % 1019,8 hPa 0,0 l/m 14,1 km/h (3 Bft) W-SW 242 0 min 0 W/m 5,1 C 3,7 C 20,9 km/h (4 Bft)
20.02.2019 23:09 8,5 C 79 % 1019,8 hPa 0,0 l/m 12,4 km/h (2 Bft) SW 236 0 min 0 W/m 5,1 C 4,6 C 19,3 km/h (3 Bft)
20.02.2019 23:12 8,5 C 79 % 1019,8 hPa 0,0 l/m 15,0 km/h (3 Bft) SW 236 0 min 0 W/m 5,1 C 3,3 C 20,9 km/h (4 Bft)
20.02.2019 23:15 8,5 C 79 % 1019,8 hPa 0,0 l/m 12,9 km/h (3 Bft) SW 218 0 min 0 W/m 5,1 C 4,3 C 24,1 km/h (4 Bft)
20.02.2019 23:18 8,4 C 79 % 1019,7 hPa 0,0 l/m 15,3 km/h (3 Bft) S-SW 194 0 min 0 W/m 5,0 C 3,1 C 27,4 km/h (5 Bft)
20.02.2019 23:21 8,4 C 79 % 1019,7 hPa 0,0 l/m 14,7 km/h (3 Bft) S-SW 194 0 min 0 W/m 5,0 C 3,3 C 22,5 km/h (4 Bft)
20.02.2019 23:24 8,4 C 79 % 1019,6 hPa 0,0 l/m 16,6 km/h (3 Bft) S-SW 213 0 min 0 W/m 5,0 C 2,5 C 27,4 km/h (5 Bft)
20.02.2019 23:27 8,4 C 79 % 1019,7 hPa 0,0 l/m 15,6 km/h (3 Bft) SW 229 0 min 0 W/m 5,0 C 2,9 C 25,7 km/h (4 Bft)
20.02.2019 23:30 8,4 C 78 % 1019,7 hPa 0,0 l/m 15,2 km/h (3 Bft) W-SW 244 0 min 0 W/m 4,8 C 3,1 C 24,1 km/h (4 Bft)
20.02.2019 23:33 8,4 C 78 % 1019,6 hPa 0,0 l/m 15,4 km/h (3 Bft) S-SW 211 0 min 0 W/m 4,8 C 3,0 C 22,5 km/h (4 Bft)
20.02.2019 23:36 8,5 C 78 % 1019,6 hPa 0,0 l/m 16,8 km/h (3 Bft) SW 214 0 min 0 W/m 4,9 C 2,5 C 22,5 km/h (4 Bft)
20.02.2019 23:39 8,5 C 78 % 1019,6 hPa 0,0 l/m 14,5 km/h (3 Bft) S-SW 213 0 min 0 W/m 4,9 C 3,5 C 19,3 km/h (3 Bft)
20.02.2019 23:42 8,4 C 78 % 1019,6 hPa 0,0 l/m 15,4 km/h (3 Bft) SW 227 0 min 0 W/m 4,8 C 3,0 C 22,5 km/h (4 Bft)
20.02.2019 23:45 8,5 C 78 % 1019,6 hPa 0,0 l/m 14,4 km/h (3 Bft) SW 219 0 min 0 W/m 4,9 C 3,6 C 22,5 km/h (4 Bft)
20.02.2019 23:48 8,5 C 77 % 1019,6 hPa 0,0 l/m 16,8 km/h (3 Bft) SW 218 0 min 0 W/m 4,7 C 2,5 C 22,5 km/h (4 Bft)
20.02.2019 23:51 8,5 C 77 % 1019,6 hPa 0,0 l/m 17,4 km/h (3 Bft) SW 230 0 min 0 W/m 4,7 C 2,3 C 25,7 km/h (4 Bft)
20.02.2019 23:54 8,5 C 77 % 1019,6 hPa 0,0 l/m 15,8 km/h (3 Bft) SW 235 0 min 0 W/m 4,7 C 3,0 C 22,5 km/h (4 Bft)
20.02.2019 23:57 8,5 C 77 % 1019,6 hPa 0,0 l/m 14,8 km/h (3 Bft) SW 215 0 min 0 W/m 4,7 C 3,4 C 20,9 km/h (4 Bft)
_ Min-Zeit 05:48 23:48 00:00 - 16:09 - - - - 23:48 04:33 06:48
Minimum _ 5,9 C 77 % 1015,4 hPa - 9,2 km/h (2 Bft) - - - - 4,7 C -0,8 C 14,5 km/h (3 Bft)
_ Max-Zeit 20:27 00:00 23:06 00:00 21:48 - - 13:36 13:39 13:45 16:09 21:48
Maximum _ 9,0 C 94 % 1019,8 hPa 0,0 l/m 19,3 km/h
SW (3 Bft)
- - 3 min 306 W/m 6,9 C 6,2 C 30,6 km/h
SW (5 Bft)
Durchschnitt _ 7,4 C 89 % 1017,8 hPa #0,0 l/m 13,6 km/h (3 Bft) SW - #9 min. 77 W/m 5,7 C 2,7 C 21,5 km/h (4 Bft)
2019 Cux-Wetter.de -Die Nutzung der Wetterdaten nur mit ausdrcklicher Genehmigung